GFSFLT1_250_spd_000.txt.gz
Wind_Speed
38 40 41 44 46 48 45 41 34 28 28 31 33 33 36 37 42 43 45 47 49 51 53 55 61 61 60 62 61 63 63 61 61
40 41 44 45 46 46 45 33 26 27 30 31 33 35 38 40 41 43 45 46 50 52 55 58 60 60 61 62 64 64 66 67 68
42 44 46 45 44 42 36 26 27 29 31 31 35 38 40 40 40 43 44 45 50 53 54 59 59 60 61 63 65 65 66 68 69
42 45 44 42 38 31 25 25 26 29 30 33 37 40 40 40 40 44 45 48 49 52 55 58 57 61 61 63 64 64 66 67 70
44 41 42 37 25 22 23 25 27 28 32 35 40 40 41 41 42 45 47 49 51 53 54 57 56 59 60 63 64 66 68 66 68
40 40 30 22 21 24 27 27 28 31 34 38 41 42 43 45 46 46 49 51 52 56 58 58 57 59 60 63 61 66 69 65 69
30 21 19 21 24 26 28 31 35 37 39 42 44 45 47 48 50 51 52 53 55 59 60 62 63 62 64 64 61 67 70 66 69
22 19 22 23 27 28 31 33 36 39 43 44 44 48 49 52 54 55 55 56 57 62 62 65 65 64 67 65 64 67 66 70 69
21 23 25 27 29 30 33 36 39 41 42 45 47 52 51 54 61 64 63 61 63 66 66 67 67 66 70 70 69 70 69 69 70
23 26 29 32 31 34 37 42 44 47 48 51 53 55 58 63 62 63 64 65 68 71 69 74 76 73 73 74 73 74 71 72 68
28 31 34 36 39 42 46 50 53 55 55 56 57 61 63 66 62 68 69 71 75 77 77 80 80 78 75 75 72 71 71 71 69
34 38 41 43 46 49 51 53 56 51 54 56 56 60 62 69 69 73 74 76 78 77 76 77 80 82 82 80 76 71 72 69 68
39 42 45 48 51 53 54 54 54 57 58 59 61 65 67 69 75 75 75 73 78 80 81 84 86 86 85 83 81 79 69 67 68
43 45 48 48 49 53 55 55 56 59 61 62 65 68 75 75 75 75 73 77 78 77 77 79 80 80 82 83 81 79 76 72 66
46 47 47 51 54 54 60 62 64 67 66 70 74 76 78 79 77 72 72 68 71 75 78 80 81 85 84 86 85 80 76 77 73
44 48 53 55 57 59 63 67 69 73 76 78 79 76 75 78 67 67 68 74 76 77 78 81 85 88 84 90 88 81 77 75 73
48 52 57 60 59 63 65 67 70 74 78 81 81 77 73 69 69 69 74 79 79 79 83 83 84 86 93 92 89 83 71 74 73
54 59 62 61 64 68 72 76 80 81 84 84 78 72 62 64 71 73 77 79 81 83 85 85 88 89 94 94 90 81 68 66 70
60 63 63 64 67 73 76 77 83 86 89 85 72 64 66 70 68 72 76 78 82 86 89 88 92 95 94 95 92 77 68 68 71
71 69 71 73 76 80 81 85 86 88 87 77 65 65 72 73 72 70 76 79 83 87 89 94 96 98 96 96 91 77 68 68 74

GFSFLT1_250_spd_003.txt.gz
Wind_Speed
39 41 41 42 44 45 47 49 47 44 40 31 28 27 27 31 34 35 35 37 38 40 44 47 49 52 53 54 54 54 59 60 62
39 39 42 43 44 47 46 46 45 40 31 28 27 27 31 35 38 39 39 40 41 43 44 47 48 51 54 54 53 57 57 60 61
41 42 43 46 46 45 41 40 33 26 27 29 27 30 34 38 41 41 41 42 42 44 46 48 51 54 54 56 57 59 61 60 60
42 44 44 46 45 40 37 24 24 26 29 30 31 34 37 39 41 41 42 43 45 50 52 53 55 57 59 58 57 58 62 63 61
44 45 44 42 40 31 23 25 29 29 30 33 35 38 40 43 46 48 46 46 51 53 55 56 55 59 63 63 62 61 64 66 66
43 42 39 37 22 22 25 28 29 30 33 35 39 42 44 46 48 49 48 50 56 58 60 59 61 63 68 67 66 70 68 68 67
41 38 34 25 25 25 28 31 31 32 35 39 43 46 47 49 52 53 55 59 61 63 61 65 67 69 70 71 71 70 69 68 67
36 32 27 26 27 29 31 32 32 35 38 42 44 48 51 52 56 58 60 63 62 66 67 69 70 70 70 72 72 72 74 75 76
33 27 25 27 28 30 32 34 38 40 44 47 50 53 54 57 58 59 60 64 66 67 70 73 73 73 74 75 74 75 74 71 68
28 28 29 31 34 35 38 40 44 47 50 51 54 52 58 57 61 63 66 69 72 74 73 72 75 71 68 66 67 69 71 73 72
29 31 33 34 38 42 44 45 49 50 51 52 54 57 60 62 64 65 69 73 73 74 74 69 66 63 65 66 67 70 72 69 71
30 34 36 39 42 45 46 47 48 50 53 51 55 60 62 67 67 71 76 75 73 71 70 60 60 68 68 69 70 70 72 71 73
35 39 42 45 46 47 48 46 49 53 54 59 60 65 68 71 73 77 78 78 74 67 60 60 62 66 66 68 70 71 73 76 76
41 44 47 48 50 49 48 52 56 58 58 60 65 67 71 75 76 78 77 73 68 61 59 62 66 66 67 69 71 72 76 79 82
44 46 48 50 50 53 55 57 61 62 62 63 68 74 76 79 84 78 75 66 59 61 61 66 67 68 71 72 73 76 80 82 84
45 47 49 51 53 56 59 62 66 67 68 70 75 78 82 82 83 80 68 63 59 60 64 66 68 72 73 76 79 80 82 83 85
49 52 55 57 58 63 65 70 70 75 77 79 80 80 81 82 87 76 63 60 62 64 66 67 69 71 74 81 82 83 87 87 88
55 58 61 60 62 66 69 72 75 76 80 83 83 80 77 82 85 73 66 62 64 70 72 70 72 75 77 79 83 86 88 91 92
62 62 64 64 63 67 69 73 77 81 80 82 84 82 83 82 80 78 73 68 71 71 72 74 76 77 78 83 87 90 91 94 95
67 69 68 65 66 69 73 77 80 83 81 83 86 86 89 90 87 74 74 71 72 72 75 77 76 77 79 83 87 90 93 97 98

GFSFLT1_250_spd_006.txt.gz
Wind_Speed
38 40 42 41 41 44 46 47 49 48 49 44 43 36 37 39 38 39 40 42 45 47 48 44 45 47 49 52 53 54 58 60 61
39 40 41 41 43 45 46 47 47 45 44 41 34 34 37 38 38 39 40 42 44 46 45 44 47 48 50 52 57 61 61 61 61
39 41 41 44 46 47 47 46 43 41 36 34 34 35 37 39 41 43 43 44 47 47 46 47 52 55 56 57 62 62 65 65 65
41 41 43 46 48 47 46 43 39 34 33 33 36 36 39 41 40 44 46 49 50 54 53 53 57 58 58 61 65 69 67 69 68
41 43 44 43 44 45 42 36 31 30 32 33 37 38 39 42 44 47 48 50 52 58 57 56 58 61 65 66 69 69 69 66 67
42 40 41 41 44 41 34 31 30 32 34 37 37 39 40 43 45 47 50 52 58 58 57 60 62 65 68 70 71 69 71 67 60
41 39 41 43 40 37 32 32 33 35 36 37 39 42 45 47 50 53 53 58 58 60 62 63 67 70 72 73 71 68 63 58 58
39 41 42 38 37 33 32 34 35 37 38 40 43 46 48 52 54 56 56 59 62 62 68 69 74 76 73 71 66 62 56 59 58
42 41 38 38 34 33 36 38 39 40 41 44 46 49 52 55 56 58 60 64 68 71 73 74 77 76 71 65 59 55 56 56 57
39 38 35 30 34 38 37 39 41 43 45 49 50 51 55 58 59 63 65 70 72 71 72 76 74 73 67 58 56 56 55 57 57
39 33 32 33 38 39 41 43 45 46 46 49 51 54 57 59 62 65 67 70 74 76 79 79 75 70 61 55 53 57 57 57 57
33 34 36 38 41 43 45 48 50 49 49 50 52 57 62 66 66 66 70 76 80 80 78 77 72 65 57 57 55 57 59 59 60
34 37 40 43 46 49 51 51 51 53 51 54 59 62 65 66 68 73 77 78 77 76 78 75 68 63 60 57 58 61 61 63 65
38 41 45 47 50 52 53 53 52 55 58 59 62 64 67 70 72 76 77 77 76 76 76 75 67 61 60 60 61 60 62 65 67
42 45 48 49 50 54 55 56 60 61 63 64 65 67 68 72 75 78 77 78 76 77 77 76 73 70 64 64 65 62 66 66 67
47 50 52 53 53 55 58 62 65 68 65 66 65 65 71 75 78 77 79 81 76 78 82 80 79 76 74 70 67 67 69 70 69
54 55 57 58 60 61 64 66 68 71 73 68 71 71 76 82 82 85 84 86 86 88 88 87 86 79 75 74 71 71 73 72 73
60 61 63 64 66 68 70 72 74 74 75 77 79 80 79 82 87 87 90 92 92 91 91 92 90 82 80 77 77 76 76 74 76
64 65 66 70 74 76 75 76 77 79 79 83 89 91 89 88 84 91 96 97 97 95 95 94 90 86 84 81 79 81 81 80 79
69 71 73 75 78 80 79 82 82 85 85 91 94 94 95 96 96 95 98 102 102 99 99 101 93 88 88 84 81 81 83 83 84

GFSFLT1_250_spd_009.txt.gz
Wind_Speed
34 34 36 41 43 44 44 44 45 47 49 48 50 51 50 44 39 38 40 41 43 45 44 45 48 49 52 53 55 59 61 62 66
38 37 40 40 44 44 44 46 48 49 52 51 49 46 40 35 34 38 40 41 43 44 46 49 51 53 56 55 58 60 63 66 68
35 39 42 43 44 43 45 48 49 50 48 48 45 36 34 35 37 39 42 44 46 46 49 51 52 57 60 59 62 65 68 70 72
37 38 41 45 45 45 47 47 46 44 44 40 34 34 36 37 40 42 44 45 46 48 50 54 57 60 62 63 67 69 71 73 72
41 40 41 44 45 46 46 45 45 42 37 34 33 36 38 41 41 43 44 46 50 53 55 57 59 61 63 66 67 69 74 70 69
40 44 45 45 44 45 44 44 41 36 36 36 37 40 40 41 42 42 46 49 52 56 56 58 62 65 67 68 71 73 72 70 69
46 44 44 42 42 42 43 40 37 35 36 37 39 42 43 42 44 45 47 51 54 57 59 63 64 66 68 71 73 72 69 66 61
45 44 42 42 43 44 39 39 35 35 39 41 42 43 43 45 48 50 52 55 57 59 62 64 66 70 74 72 71 71 68 62 57
41 43 43 45 43 40 39 35 34 38 41 42 44 46 48 50 52 54 57 58 61 63 63 66 70 72 71 70 66 67 64 61 54
41 45 46 44 41 37 34 34 37 41 44 46 47 49 50 53 55 57 61 63 64 69 68 71 71 71 70 68 67 68 67 59 55
46 47 45 43 38 36 37 39 42 45 48 49 51 52 52 55 56 62 64 66 70 68 68 70 72 70 69 64 66 68 70 65 62
48 45 43 39 39 40 41 45 47 51 53 54 54 53 55 58 62 66 67 71 68 70 72 74 73 75 76 76 76 72 70 72 70
45 45 42 41 42 45 48 50 53 54 55 55 55 56 59 63 68 69 70 70 70 73 76 78 78 79 78 80 79 77 74 75 74
45 45 43 44 47 50 52 55 55 57 58 56 58 62 65 69 71 73 75 73 75 79 81 80 82 82 83 84 83 82 82 79 75
46 48 48 49 52 55 56 58 62 64 64 63 64 67 70 73 75 76 76 78 81 85 86 86 86 86 86 87 86 87 82 82 82
48 50 53 54 56 59 62 64 66 70 72 71 73 73 77 77 80 79 80 83 88 90 92 91 92 92 91 92 92 94 94 90 89
51 53 56 60 62 65 69 70 71 71 75 77 78 78 80 84 85 85 87 87 90 93 95 95 95 94 95 98 98 101 100 96 97
57 59 62 64 67 71 74 76 76 77 81 83 85 85 83 83 88 93 96 97 98 99 100 99 100 98 101 102 103 107 106 103 103
63 65 68 71 73 77 80 82 83 86 86 91 93 94 93 90 91 93 99 106 104 103 103 103 103 106 109 107 107 112 111 109 99
67 70 73 77 81 83 86 89 91 93 95 97 98 98 99 101 102 98 99 104 108 109 108 110 112 113 113 112 112 113 105 100 90

GFSFLT1_250_spd_012.txt.gz
Wind_Speed
36 40 39 41 42 40 41 42 43 44 43 45 46 49 49 50 49 42 32 32 35 38 40 43 45 45 48 50 51 52 55 58 61
38 38 38 41 41 43 43 44 44 44 45 45 47 47 46 44 36 31 33 35 38 40 42 43 44 47 49 51 54 55 58 60 63
36 37 38 40 44 43 44 46 46 45 46 46 44 43 41 32 31 32 35 38 40 41 41 43 44 47 50 52 54 57 59 63 67
39 42 40 38 40 41 42 43 43 43 43 43 42 39 32 31 32 34 37 39 40 41 41 43 46 49 53 53 56 59 63 63 64
38 35 36 40 42 44 43 42 41 39 39 40 39 32 31 34 36 38 39 40 40 42 42 45 48 50 53 55 57 60 64 61 60
42 41 41 45 46 45 44 40 40 41 39 39 34 31 34 36 38 40 41 41 43 44 45 48 52 53 56 57 57 59 60 61 61
43 44 48 48 46 46 44 44 44 42 39 38 33 33 37 41 41 41 42 43 46 47 49 52 55 56 59 57 57 59 57 59 59
40 45 47 47 49 47 45 44 46 42 41 36 34 37 41 42 44 45 47 48 50 51 54 57 59 60 60 59 59 61 61 62 62
43 45 48 49 47 46 46 47 42 41 36 36 37 40 44 46 49 50 51 52 53 55 59 63 64 63 62 61 63 66 66 66 66
44 44 45 47 48 49 47 42 39 37 38 39 41 44 48 50 53 55 54 54 56 59 62 65 65 68 67 66 67 70 70 70 71
41 44 47 49 49 50 46 45 40 41 41 43 46 49 52 55 58 58 58 58 62 64 67 68 68 70 70 71 72 75 76 76 75
43 48 49 49 52 50 48 45 44 45 46 49 52 54 57 58 59 60 61 63 65 67 72 72 72 73 75 78 78 80 80 80 81
47 50 52 52 53 53 50 47 48 50 51 53 55 57 59 62 65 68 68 69 71 73 74 75 76 77 77 79 82 85 85 85 85
50 53 55 55 55 55 54 52 52 55 58 57 59 62 65 68 70 73 75 76 78 80 81 80 80 81 82 85 85 85 87 88 89
52 55 57 59 56 58 57 57 59 61 63 63 66 69 72 75 77 77 77 78 82 83 85 87 87 87 88 91 91 92 93 93 90
54 55 60 58 57 60 61 62 64 68 70 69 72 74 79 82 85 85 87 87 89 90 92 93 92 91 95 95 96 97 98 95 92
57 60 59 58 60 64 66 68 69 73 77 78 78 79 83 88 91 93 95 96 98 99 101 99 100 101 101 101 103 102 102 101 99
59 58 59 60 64 68 71 73 76 78 82 86 88 88 87 89 92 95 98 100 101 103 104 106 107 107 109 110 111 110 108 106 104
57 59 62 66 70 73 75 78 82 84 86 91 95 96 97 96 92 94 96 100 104 109 112 112 112 112 112 111 111 112 113 114 114
63 66 69 72 75 79 82 87 90 92 95 97 100 103 105 107 109 103 105 106 107 110 114 119 120 120 120 118 117 119 120 120 122

GFSFLT1_250_spd_015.txt.gz
Wind_Speed
33 31 36 35 37 39 41 38 39 40 41 43 42 43 43 45 46 44 43 42 32 30 32 34 36 37 38 37 37 39 39 41 42
24 35 32 35 39 37 36 40 40 39 39 41 41 40 42 45 44 42 37 30 29 31 33 35 37 39 39 37 41 41 42 42 43
30 33 33 36 38 37 40 38 41 40 39 37 38 38 39 42 41 35 30 29 31 33 35 36 39 41 39 40 43 45 45 44 46
37 38 36 38 39 41 40 42 43 42 39 37 37 38 38 40 38 32 30 32 34 35 37 40 41 41 40 42 44 45 48 47 47
37 41 45 43 39 38 41 42 45 43 41 39 39 40 39 36 36 34 34 36 37 38 40 42 44 43 44 46 49 50 51 51 49
34 38 38 42 43 46 47 48 49 45 44 42 41 42 40 38 36 36 37 39 40 41 41 43 45 46 47 48 51 56 55 54 53
37 39 42 40 42 45 46 50 48 47 43 44 47 43 42 41 38 38 39 41 42 44 46 46 47 48 50 52 54 57 57 58 58
37 37 37 39 43 45 48 50 48 46 47 47 44 43 41 39 39 40 42 44 47 49 50 50 49 50 53 55 57 59 59 60 60
43 41 42 46 46 47 47 47 48 48 49 44 42 39 38 39 42 44 46 49 51 53 55 54 53 55 57 58 60 63 63 64 64
50 48 51 50 48 49 48 48 50 50 48 46 42 40 41 43 46 49 52 54 56 58 57 57 58 59 61 63 65 66 67 68 68
50 47 46 48 50 50 50 50 52 53 49 46 43 43 45 47 49 51 54 55 56 59 62 64 64 67 69 71 72 73 73 72 72
44 48 50 51 49 53 54 54 54 55 53 51 48 49 50 52 54 56 58 61 62 64 67 69 72 74 76 77 78 79 78 78 77
47 50 51 52 53 54 57 57 56 58 56 55 55 55 57 59 61 64 65 66 69 72 73 75 77 79 81 81 81 81 83 84 84
44 48 51 51 53 56 56 59 58 60 57 56 60 62 64 67 69 71 73 74 76 78 80 84 84 84 85 87 87 87 88 88 88
45 48 50 55 58 59 59 60 61 59 58 60 63 66 70 73 76 78 79 81 84 85 87 89 90 91 91 91 91 92 92 93 93
46 50 54 57 58 60 63 62 60 61 61 62 66 70 73 76 80 84 86 89 92 92 93 95 96 98 100 100 100 99 100 100 101
50 53 56 60 62 62 61 60 62 66 70 71 73 74 77 82 85 88 90 93 97 99 101 103 104 105 107 108 110 110 109 109 109
55 56 54 55 58 61 63 65 67 69 75 79 81 81 82 84 88 92 97 101 104 107 110 112 114 115 115 116 116 116 117 117 115
53 55 58 61 63 65 68 71 74 76 79 84 90 92 93 93 89 96 101 104 107 110 113 116 119 123 125 126 125 125 124 124 125
56 60 63 66 68 71 73 77 80 83 86 90 94 98 104 109 110 102 107 111 114 116 118 120 122 125 129 131 132 132 130 131 130

GFSFLT1_250_spd_018.txt.gz
Wind_Speed
40 41 38 34 33 33 38 37 40 41 39 40 41 42 42 45 44 43 43 44 45 44 41 36 32 32 33 36 38 38 35 36 37
37 38 35 31 32 36 38 39 38 35 40 41 40 42 41 41 41 42 42 42 42 40 35 32 32 34 37 38 40 39 37 38 37
37 36 28 27 35 38 38 40 38 40 41 43 43 44 42 39 40 42 43 42 41 37 34 33 35 36 38 41 43 42 40 39 41
38 30 35 34 39 37 39 37 43 44 42 43 43 43 43 41 42 43 44 42 40 38 36 36 37 38 41 44 46 45 44 44 45
36 33 38 40 43 45 47 48 44 43 45 47 47 45 43 41 42 44 44 43 41 40 38 38 39 42 42 44 48 48 46 46 49
36 36 39 41 47 48 46 42 43 44 46 47 48 46 43 46 48 44 43 43 43 42 41 42 45 46 47 49 50 50 49 49 51
39 35 37 37 40 42 47 43 39 43 48 48 47 44 47 48 46 44 42 42 43 44 45 47 48 50 52 54 56 54 54 53 55
42 42 41 39 41 41 40 40 43 48 49 50 48 48 48 47 44 43 39 38 41 45 47 50 52 55 57 59 59 57 57 59 59
45 46 48 45 41 45 47 51 51 52 53 52 51 50 49 47 45 43 42 42 44 46 50 53 56 59 60 59 59 60 61 63 65
43 46 49 49 50 54 53 52 52 53 55 54 54 55 54 50 46 47 47 47 48 51 53 55 57 59 60 61 63 63 65 68 70
46 50 51 53 56 55 56 54 53 55 56 57 57 57 56 56 51 50 52 53 55 56 58 59 61 63 64 66 68 71 72 74 75
42 43 46 49 50 53 54 57 58 58 57 59 60 59 58 59 57 55 56 59 62 64 65 67 69 71 73 74 75 77 79 82 83
44 47 49 51 53 54 56 57 59 58 56 59 61 62 63 63 60 59 60 63 66 69 73 74 76 78 80 81 84 85 87 89 89
48 49 50 51 51 51 53 55 55 59 61 61 63 64 66 63 62 64 66 68 71 74 75 79 82 84 85 88 90 92 94 94 94
46 47 47 46 48 49 52 56 60 61 62 64 65 64 62 62 65 68 72 75 78 80 82 86 88 92 95 95 95 97 99 100 101
43 44 44 47 51 54 58 61 63 64 61 58 60 63 65 69 70 74 77 80 84 87 89 93 95 97 99 103 105 105 106 107 108
41 44 48 53 56 59 62 63 61 62 64 63 63 63 68 73 75 79 83 86 90 94 97 100 103 105 106 108 111 115 116 116 115
48 51 54 57 59 62 62 61 63 64 68 70 71 70 73 75 81 85 89 93 96 100 104 108 112 114 117 119 120 121 124 123 122
52 55 57 58 60 61 64 67 68 70 72 75 79 81 82 81 78 87 93 98 103 106 110 113 118 121 121 122 123 125 128 130 130
52 54 57 58 62 65 68 71 74 77 78 80 83 88 92 96 98 92 99 104 108 110 112 113 115 118 123 125 128 129 132 135 138

GFSFLT1_250_spd_021.txt.gz
Wind_Speed
53 51 51 45 44 41 40 38 36 38 39 38 40 41 37 42 43 42 44 46 43 42 43 44 42 42 42 38 35 34 36 37 39
49 50 46 41 42 38 37 34 36 37 44 42 41 37 38 40 44 44 44 45 43 42 42 42 42 40 38 35 34 36 38 40 41
49 47 39 37 38 36 34 33 38 46 43 42 38 40 40 40 44 44 45 44 44 43 44 44 42 40 36 35 37 38 40 43 44
46 42 35 36 34 31 28 36 41 43 42 41 44 47 42 45 44 46 46 45 45 45 44 43 42 40 38 39 39 41 43 43 45
41 37 34 34 33 31 35 46 48 42 43 48 51 42 44 47 48 45 44 47 50 49 46 43 43 45 42 42 43 45 47 47 49
37 34 34 33 36 37 40 44 45 48 52 50 44 41 47 50 48 46 46 48 48 47 46 45 45 47 47 46 48 49 51 52 53
35 33 34 34 40 38 40 41 43 43 45 50 43 45 48 52 51 49 48 47 46 45 44 43 45 48 50 52 52 54 54 56 57
33 34 35 35 39 39 40 42 45 46 42 42 47 51 54 54 53 52 51 50 47 44 44 44 44 47 51 53 55 57 58 59 60
32 34 37 40 44 47 41 43 44 48 46 49 52 57 59 56 56 55 56 55 50 47 47 48 49 50 53 55 57 59 61 60 60
33 34 40 43 44 52 51 51 53 55 56 57 60 59 58 58 58 58 58 57 56 53 52 52 53 54 56 58 60 61 63 65 65
33 36 38 48 48 49 54 58 57 59 62 63 63 64 62 62 61 59 60 61 61 59 56 56 58 59 61 62 64 67 70 72 73
35 36 39 41 48 52 56 60 64 64 61 62 62 62 64 63 61 63 65 64 64 65 61 59 61 63 65 67 69 71 73 76 78
36 39 42 45 49 50 52 55 58 59 58 60 61 61 61 63 65 67 67 66 65 63 63 63 65 67 69 72 75 77 80 81 83
38 41 44 46 50 52 56 56 57 59 57 56 58 61 64 67 69 68 66 64 63 64 65 67 70 73 76 78 79 81 84 87 88
38 41 43 46 49 52 54 55 53 52 54 57 61 65 68 67 65 64 67 67 68 70 72 74 77 81 83 86 87 88 91 93 96
38 40 42 44 46 47 48 51 54 59 61 62 65 67 67 67 68 69 70 72 75 77 79 81 83 87 89 92 96 99 101 101 102
40 41 43 45 47 50 53 56 61 64 67 67 67 66 69 73 74 74 76 78 80 83 87 90 92 94 97 101 104 108 110 112 113
47 48 49 52 54 57 60 63 64 65 69 71 69 70 72 73 78 80 83 86 89 91 95 99 103 106 109 112 113 115 114 118 119
47 50 52 55 57 59 61 62 65 66 69 73 77 79 80 80 77 83 87 91 95 97 101 105 109 112 114 115 115 116 118 118 118
49 50 54 57 60 62 64 67 70 74 76 78 81 83 87 90 89 84 92 94 100 103 106 110 113 115 115 118 118 120 122 122 124

GFSFLT1_250_spd_024.txt.gz
Wind_Speed
59 58 58 57 54 52 53 52 50 46 39 41 43 40 41 40 42 43 38 39 44 45 44 43 42 43 42 42 43 42 39 35 34
62 57 57 54 52 52 52 49 46 43 40 41 38 41 43 44 44 37 41 40 43 46 46 45 43 44 44 41 41 39 35 35 36
56 53 52 51 51 50 48 45 42 41 35 35 38 42 48 48 40 43 41 44 44 48 47 44 44 44 45 42 39 38 38 38 39
50 48 47 48 49 47 43 40 37 33 36 37 39 43 48 44 44 43 43 43 46 51 45 44 46 47 46 44 41 41 42 42 43
44 41 43 47 47 42 39 36 34 31 33 36 42 50 48 45 48 49 44 47 50 48 47 46 47 46 44 44 43 45 46 46 47
38 41 44 44 42 38 35 34 34 32 37 43 53 51 52 50 53 46 49 53 50 52 49 48 49 47 46 46 46 48 51 52 52
39 40 41 41 38 37 36 38 39 40 40 43 45 45 47 50 49 47 49 49 52 52 51 51 50 48 47 47 46 49 53 55 56
38 39 40 40 38 37 37 40 45 49 41 43 45 48 49 47 47 49 52 55 60 56 54 53 52 50 48 48 49 50 53 57 60
40 39 38 38 37 37 37 41 43 43 43 44 46 51 51 52 53 55 60 63 63 60 58 57 55 54 54 52 53 54 56 58 61
41 40 39 38 37 37 40 41 48 51 48 50 50 54 57 61 61 63 67 67 68 63 62 59 60 61 60 57 56 59 59 60 62
41 42 40 38 37 38 41 44 46 55 58 61 61 63 65 68 67 70 72 69 65 65 61 62 64 65 64 63 60 59 63 65 66
41 42 41 40 39 39 41 48 52 51 54 59 64 69 71 75 75 67 64 65 64 63 66 68 68 66 64 62 61 62 63 66 68
38 40 42 42 42 41 43 46 49 53 55 59 62 62 63 64 63 62 62 62 64 67 70 71 69 66 67 66 66 67 69 71 74
37 37 41 43 43 43 46 48 50 53 56 58 60 64 63 62 61 61 64 67 70 71 70 69 71 72 72 73 74 75 77 79 81
38 38 40 42 44 44 45 48 50 52 54 57 59 62 62 62 63 66 69 73 74 74 73 74 76 78 79 81 84 84 84 85 87
40 42 42 43 44 46 47 48 49 51 52 54 57 61 65 68 71 72 74 75 77 76 79 81 83 85 87 88 90 91 93 94 94
40 42 43 45 47 49 51 53 55 58 60 60 62 65 71 73 76 76 76 76 78 82 85 88 90 92 93 95 96 98 100 101 103
41 42 44 46 48 49 52 54 57 61 65 67 66 68 70 72 76 79 82 84 86 88 91 94 96 99 101 101 102 106 108 109 109
46 46 46 47 48 51 54 57 60 62 66 70 73 74 74 76 75 80 85 88 91 95 99 101 103 104 105 108 111 113 114 116 118
47 49 51 53 54 55 56 59 61 63 66 70 75 79 82 86 85 81 86 90 94 94 97 102 106 109 113 117 117 118 121 123 122

GFSFLT1_250_spd_027.txt.gz
Wind_Speed
58 59 64 62 66 67 65 60 58 56 57 59 59 56 48 46 46 48 43 41 44 43 38 40 41 43 46 46 44 43 42 42 42
63 67 67 67 69 66 59 55 53 54 56 57 57 50 43 45 45 46 46 47 49 42 40 42 44 45 46 44 44 45 45 42 41
66 67 67 66 59 58 53 50 50 53 54 53 48 43 43 46 49 50 48 51 51 43 40 44 44 46 47 44 44 45 47 45 43
68 68 65 57 52 47 46 46 50 51 50 47 41 41 46 47 48 48 48 51 51 44 45 44 46 49 46 45 44 45 45 45 45
67 59 55 48 46 45 45 47 48 48 47 42 41 42 43 46 47 44 51 53 51 49 50 51 48 51 49 48 47 45 44 45 47
57 55 45 43 45 46 46 46 46 47 45 42 42 41 43 45 44 49 59 58 58 57 53 54 53 50 51 51 49 48 46 46 48
53 43 41 44 46 46 46 45 45 45 43 43 41 41 43 46 50 54 53 53 54 53 53 53 52 55 59 55 52 50 49 47 48
44 40 42 45 46 47 46 44 42 42 43 46 45 45 45 47 49 52 53 57 56 54 56 57 59 64 66 66 58 56 53 52 51
37 41 43 44 45 45 45 43 42 42 43 49 52 52 52 49 52 53 56 57 58 60 59 65 65 69 65 64 62 61 58 59 58
39 44 44 42 41 42 44 43 43 43 45 48 53 55 55 56 54 55 57 59 64 65 68 68 70 72 71 66 65 62 63 65 65
43 45 44 42 41 42 42 44 43 43 45 48 51 57 59 61 62 63 67 68 73 75 76 75 77 73 67 65 65 67 69 70 70
43 43 43 41 41 42 41 42 44 44 46 49 52 56 65 67 67 67 70 76 78 80 83 77 74 69 67 67 69 71 73 74 71
41 40 41 41 41 41 40 41 42 45 47 49 51 57 62 63 68 72 74 75 72 71 70 70 71 70 71 73 75 77 76 74 73
40 40 40 40 41 41 41 41 42 43 46 49 52 55 58 59 62 63 66 68 70 70 71 71 73 75 78 80 81 81 80 79 80
42 42 40 40 39 39 41 43 43 43 46 48 51 53 57 58 62 63 66 69 71 73 75 77 79 82 83 85 85 85 85 85 86
41 42 43 43 43 42 42 43 45 44 45 48 53 56 59 61 64 67 70 73 75 79 81 83 84 86 87 88 88 89 91 92 93
42 44 47 49 49 49 50 50 49 51 49 51 53 56 63 63 67 70 73 75 77 80 82 84 87 88 90 93 96 98 99 98 99
43 45 46 47 49 50 51 52 55 58 60 59 59 60 63 65 71 74 78 80 82 85 88 92 94 97 99 101 103 104 106 106 110
42 45 47 49 51 53 54 55 57 59 62 66 66 67 67 66 65 73 81 85 88 91 93 95 98 102 104 106 108 109 110 111 112
46 49 51 54 56 58 60 61 62 63 66 69 73 76 76 76 73 72 80 87 92 94 96 99 103 105 107 108 110 113 115 115 117

GFSFLT1_250_spd_030.txt.gz
Wind_Speed
56 58 59 61 63 62 67 69 68 69 70 65 62 59 56 58 61 61 62 57 54 51 51 50 43 48 45 41 41 42 44 47 44
58 60 61 61 63 70 72 72 73 68 64 59 55 55 56 57 59 60 59 54 53 54 50 46 48 49 48 44 42 45 45 47 44
64 66 66 66 70 71 73 68 61 57 55 53 53 54 55 57 58 58 55 53 52 52 51 49 51 52 52 46 44 46 49 49 48
66 67 70 70 73 69 63 61 55 52 51 51 52 53 54 55 56 53 52 51 53 51 53 51 52 55 52 48 47 47 49 52 50
63 63 67 68 66 63 59 51 48 50 51 52 53 53 54 54 52 52 50 51 53 53 50 50 55 58 53 50 52 53 52 51 50
62 68 67 63 62 56 49 46 48 51 52 53 53 52 52 52 51 50 50 50 49 48 50 56 62 60 59 55 56 52 51 52 53
67 66 63 60 55 47 46 46 49 52 52 52 52 51 51 50 50 50 50 49 49 50 50 58 63 61 58 58 57 57 58 58 62
68 63 61 54 45 45 46 49 49 48 48 48 49 49 50 51 52 52 52 50 49 52 55 58 60 60 60 60 60 62 63 65 66
64 59 53 45 43 46 48 50 50 48 47 47 47 49 50 52 54 56 55 54 55 56 56 60 61 63 64 63 65 69 69 69 71
60 54 44 43 45 47 49 49 47 47 47 47 47 48 50 52 56 61 62 62 60 59 61 62 64 67 70 71 72 73 73 76 74
56 47 45 46 47 48 46 45 45 46 46 46 47 48 49 50 55 62 68 67 69 68 68 70 72 73 76 78 78 81 81 78 76
50 46 46 45 44 45 45 44 43 44 45 46 47 47 47 50 53 60 63 72 75 76 76 77 78 77 81 85 84 82 77 78 77
47 45 44 45 44 44 45 45 43 43 44 45 46 48 48 48 50 54 57 62 69 78 81 84 86 88 88 85 82 81 81 80 80
45 46 45 47 47 46 45 45 46 47 47 46 48 48 48 50 52 54 56 59 63 66 70 73 76 78 81 83 83 83 82 83 83
46 46 44 48 47 48 49 49 49 51 54 54 54 54 52 54 55 58 60 62 65 67 70 73 76 78 80 82 84 86 87 88 89
47 47 47 48 47 48 50 51 51 51 53 55 57 59 59 62 63 66 67 69 70 71 73 75 78 81 83 85 86 88 89 90 91
43 45 47 48 47 47 48 49 51 51 52 54 56 61 66 66 68 71 74 76 78 80 82 85 87 88 90 93 94 96 97 98 99
40 40 42 43 43 45 48 50 54 55 55 57 58 60 64 69 74 77 80 81 83 86 89 90 92 93 95 97 99 102 104 106 108
41 43 45 47 49 51 52 55 58 61 64 65 66 67 68 70 71 80 85 87 89 92 95 97 100 101 102 104 106 108 110 112 114
44 46 50 52 55 57 59 61 63 66 69 72 74 75 76 77 75 73 81 89 93 96 98 101 103 106 109 111 113 115 118 118 119

GFSFLT1_250_spd_033.txt.gz
Wind_Speed
46 47 52 56 59 60 65 69 70 68 72 73 74 77 74 70 66 63 63 60 59 60 60 61 61 55 50 50 47 43 45 43 43
49 54 59 61 64 68 71 69 66 70 72 74 73 68 66 61 58 58 57 58 57 58 59 59 58 54 53 53 51 50 47 49 47
55 55 60 64 66 69 65 67 68 70 70 68 68 64 57 55 54 54 55 55 56 57 58 58 54 54 55 54 52 51 50 52 51
55 63 63 63 64 62 67 69 71 70 67 62 58 53 51 51 53 54 54 55 55 56 57 54 53 51 54 56 54 52 53 55 54
63 65 66 64 62 65 70 70 69 66 61 53 51 49 52 52 55 55 56 55 55 55 54 51 52 52 55 56 52 54 55 56 56
65 71 67 63 67 69 71 68 67 59 53 49 49 52 53 52 52 53 54 53 52 53 53 54 54 54 56 54 56 56 58 61 58
69 67 63 64 69 71 71 67 61 52 50 50 52 54 53 51 50 50 51 51 52 51 53 51 53 53 54 51 53 56 62 62 63
67 63 64 67 72 71 70 62 53 50 50 52 54 52 51 50 49 50 51 51 52 52 54 56 56 56 58 57 57 61 63 66 63
66 66 67 72 69 73 66 55 51 51 53 54 50 49 50 49 48 49 50 52 53 55 58 59 58 59 58 60 59 62 65 66 67
66 70 72 70 69 68 59 52 51 50 51 50 49 48 47 47 48 49 49 50 54 57 61 63 64 64 63 62 63 67 67 68 69
71 73 71 70 67 61 52 49 49 49 49 48 47 47 47 47 47 48 48 48 51 56 61 66 72 72 73 72 71 73 74 76 76
74 73 69 66 61 52 48 50 49 50 51 49 48 48 49 50 51 50 50 49 50 52 55 61 70 77 82 83 82 83 82 81 84
72 66 63 56 52 50 49 48 51 51 52 53 53 55 56 57 57 56 55 54 55 55 57 58 61 64 70 77 84 91 94 95 94
62 59 55 52 48 49 49 49 49 50 50 51 53 55 56 57 58 58 59 60 62 63 63 64 66 68 70 72 74 77 80 83 85
55 51 50 48 49 50 49 51 50 50 51 51 52 53 55 57 59 60 62 63 66 69 71 73 74 76 77 79 81 82 84 85 87
49 47 45 45 43 45 47 47 46 47 50 52 54 55 57 59 62 65 67 68 70 72 74 77 79 82 83 85 88 90 91 93 94
46 44 44 45 45 45 46 48 49 50 53 55 58 61 62 62 66 70 73 74 77 78 80 82 84 87 90 92 93 95 96 98 99
45 45 45 46 47 48 50 52 54 57 58 60 63 64 68 70 76 79 82 83 85 86 87 89 90 92 94 96 99 101 102 104 105
46 46 47 49 50 52 54 57 60 62 65 67 69 71 72 74 75 86 91 91 90 91 93 95 97 98 99 100 100 102 104 106 108
49 51 52 53 54 57 59 62 66 69 72 74 77 80 81 82 81 82 89 93 95 94 94 96 98 100 101 102 104 106 108 110 111

GFSFLT1_250_spd_036.txt.gz
Wind_Speed
50 51 50 53 53 55 57 57 61 66 65 64 66 67 67 69 68 66 67 66 63 59 57 58 59 57 58 56 56 57 55 49 46
56 51 53 57 59 61 61 60 65 66 64 62 67 68 70 70 64 62 58 55 53 53 51 52 54 55 56 57 57 56 50 51 50
55 56 57 60 63 59 61 67 71 67 66 68 71 70 71 66 59 52 49 47 47 49 51 51 52 54 56 56 56 53 53 53 52
55 54 59 61 60 62 66 69 71 64 66 69 70 70 68 58 52 48 47 49 50 51 51 53 55 55 54 55 54 53 51 51 52
58 60 54 57 64 65 67 67 66 65 68 71 72 70 62 53 49 49 51 52 51 51 52 53 54 54 54 52 52 50 50 51 53
60 57 59 61 61 66 69 69 68 68 71 71 73 66 55 51 51 53 53 50 50 49 49 49 50 52 52 52 52 51 52 53 54
58 58 58 63 66 70 72 67 71 71 70 72 71 59 52 51 52 52 49 49 48 46 46 47 49 50 52 52 52 53 55 54 55
58 60 61 65 69 74 70 69 71 73 71 71 65 53 51 51 51 50 49 48 46 46 46 46 48 49 51 54 54 56 57 58 57
64 64 65 70 72 71 67 69 74 72 68 61 52 48 48 47 48 48 48 48 48 47 47 47 46 49 52 55 58 61 60 61 62
69 71 71 72 72 71 69 70 72 68 59 53 49 47 47 47 47 47 48 49 48 49 50 50 50 49 49 54 61 62 65 66 66
71 71 67 70 70 66 67 68 68 62 54 48 45 47 45 46 47 49 51 53 54 55 55 54 54 54 54 54 55 63 68 71 73
72 69 71 70 67 67 66 66 62 57 51 47 46 47 49 50 51 52 53 54 54 55 56 56 57 58 59 60 60 60 61 69 79
67 66 68 68 68 67 62 58 57 52 51 47 47 48 50 51 53 54 54 55 56 57 58 59 60 62 63 65 66 67 67 69 70
67 64 64 69 66 60 53 54 50 48 48 48 49 49 50 52 52 54 56 57 59 60 60 62 63 65 68 70 72 73 75 76 78
64 65 66 64 56 51 50 47 47 48 49 49 50 52 54 56 58 60 61 62 63 65 67 69 71 72 73 76 78 79 81 82 83
65 62 59 50 50 49 48 48 47 49 50 53 55 55 58 60 64 68 70 71 72 74 76 79 81 83 84 86 86 86 87 88 90
56 53 47 49 47 47 47 48 49 52 53 56 60 61 63 64 68 72 74 77 80 82 84 86 88 90 93 95 95 94 94 95 96
46 46 46 46 47 47 49 51 54 56 58 62 63 65 69 71 77 82 85 85 88 92 93 95 97 99 102 102 101 100 99 98 99
45 44 46 46 48 50 53 55 59 61 64 66 69 71 72 74 75 87 95 96 99 102 105 108 109 106 103 99 97 96 97 98 99
44 45 48 49 52 55 58 61 64 67 70 72 74 77 80 82 79 81 91 98 104 108 113 109 102 101 100 100 100 100 101 102 103

GFSFLT1_250_spd_039.txt.gz
Wind_Speed
51 51 53 52 52 52 54 56 56 56 61 58 61 66 67 63 62 66 68 67 65 58 55 51 49 49 48 50 49 50 50 52 52
55 53 53 53 53 56 57 58 57 58 58 60 63 64 65 62 65 67 70 65 56 50 47 46 46 46 46 47 47 48 50 51 52
59 56 54 54 55 60 58 58 58 57 61 61 63 68 66 66 66 68 69 61 50 47 47 48 48 49 49 50 50 50 51 53 53
60 58 61 58 57 59 59 62 55 62 61 65 71 70 65 65 66 68 64 55 48 49 50 50 48 48 49 50 51 51 53 54 53
64 64 63 63 62 60 63 55 60 60 65 66 70 65 66 66 68 64 58 52 51 49 48 47 47 47 48 48 49 49 50 52 53
66 66 67 66 66 61 58 59 60 62 63 70 67 65 67 68 67 60 53 50 48 47 47 46 45 44 45 45 46 47 49 49 51
65 63 62 63 65 64 62 62 64 66 69 71 66 64 64 67 63 55 48 48 45 43 43 41 42 41 44 45 45 46 47 49 49
72 70 71 68 65 65 65 68 68 70 68 65 64 64 65 65 60 48 45 43 42 42 44 43 42 43 45 44 45 45 46 48 49
74 74 74 72 69 67 69 70 70 67 66 64 63 64 64 60 56 47 45 43 42 43 44 45 46 48 48 48 48 47 46 48 51
78 76 75 73 72 71 71 72 71 68 66 65 65 64 59 55 49 45 43 44 44 44 46 47 48 48 49 50 50 50 50 50 51
76 75 75 75 75 72 72 72 69 67 64 66 64 59 55 49 48 46 45 44 45 45 47 48 50 51 52 53 53 53 53 54 56
72 73 73 71 69 68 68 70 70 67 66 64 59 55 49 48 46 47 47 47 48 49 49 51 53 54 55 56 57 58 58 59 61
67 67 66 67 67 68 67 69 66 68 66 59 56 52 49 47 48 48 50 51 51 53 54 55 57 59 60 62 63 64 64 66 66
62 63 65 66 65 65 68 66 67 68 58 54 53 51 48 49 51 53 55 57 57 58 58 59 62 65 67 68 70 72 73 76 77
58 61 65 64 64 63 64 66 66 56 54 53 53 49 50 53 56 57 60 62 62 65 66 68 69 71 74 77 78 80 81 82 84
56 56 60 60 61 61 64 59 53 54 53 53 50 52 54 58 62 63 66 68 69 72 74 76 77 80 82 84 86 89 92 93 95
53 55 56 59 60 59 54 51 50 49 52 52 54 57 59 62 66 69 71 73 75 79 81 83 86 87 91 93 95 97 100 103 104
49 51 53 52 53 50 50 49 48 50 52 54 58 61 64 68 75 78 79 79 82 85 89 92 94 96 99 102 103 105 109 105 98
50 49 49 49 49 49 49 49 51 53 55 60 63 65 68 71 75 83 87 88 91 94 98 102 103 106 109 111 111 114 106 100 99
49 50 49 49 49 48 49 51 54 57 61 65 68 71 74 77 77 78 86 91 96 100 104 108 111 115 118 119 120 112 107 107 106

GFSFLT1_250_spd_042.txt.gz
Wind_Speed
52 52 53 52 53 53 53 52 52 51 54 59 56 56 55 55 63 66 67 71 68 66 65 67 60 52 45 43 44 45 45 45 45
57 55 55 55 55 56 56 54 55 55 58 55 59 61 59 60 63 65 69 68 66 66 66 62 53 48 47 48 48 47 46 47 47
61 59 58 59 58 60 58 57 59 59 60 59 60 54 59 62 64 66 69 65 64 65 65 60 51 49 49 49 46 45 46 47 48
65 64 63 64 63 64 64 63 64 64 64 60 56 59 61 63 64 70 67 62 62 63 65 55 48 48 46 46 45 45 45 44 46
67 67 66 66 65 65 64 65 67 68 67 64 62 62 63 66 68 66 65 62 62 61 62 52 48 45 42 40 39 40 41 42 43
69 68 68 67 67 66 65 65 63 64 65 65 63 63 67 68 67 67 64 63 61 59 57 49 44 42 40 38 35 34 35 36 38
73 74 72 70 71 71 68 69 72 69 70 68 68 68 68 69 69 65 64 65 59 58 55 49 46 45 42 41 40 39 37 39 39
74 76 75 75 76 76 73 73 72 71 71 69 70 70 70 70 69 64 62 61 58 54 52 45 44 42 42 42 42 40 40 40 40
78 79 81 80 78 79 79 76 76 74 73 73 73 73 71 68 70 67 62 58 56 51 48 46 44 42 42 42 41 42 42 44 44
82 83 83 82 81 79 78 79 78 76 73 73 70 69 68 70 68 66 61 55 54 50 46 44 43 43 43 44 45 46 47 48 49
80 79 79 77 78 83 81 78 78 73 72 70 70 69 69 70 66 65 58 54 51 50 48 46 46 48 48 49 50 50 50 51 52
77 80 78 77 79 80 78 75 72 70 69 68 67 69 70 67 67 62 56 51 54 50 49 50 52 54 54 55 55 53 53 54 56
70 73 75 78 80 79 80 70 69 70 68 68 69 67 68 67 64 59 54 53 52 52 53 55 58 59 60 60 60 62 62 62 63
57 61 63 65 67 67 68 69 67 68 69 66 67 68 65 65 59 57 55 54 54 56 58 60 63 64 65 67 69 70 71 71 72
54 53 54 56 59 62 64 66 64 62 62 63 64 64 63 57 57 56 56 57 58 61 62 65 68 71 72 74 75 77 77 79 81
52 51 53 55 56 57 58 59 58 60 60 62 63 59 55 55 55 56 58 60 63 66 67 71 74 76 78 79 81 83 84 87 89
53 53 52 52 51 53 53 54 56 58 58 57 56 53 54 54 56 59 62 65 69 71 73 77 79 80 82 83 86 88 92 94 96
55 55 54 53 54 54 53 54 54 54 55 54 53 54 54 57 61 64 68 71 74 77 80 82 84 85 86 88 90 92 95 97 101
56 57 55 54 55 55 54 54 54 53 53 54 54 55 56 59 64 72 74 78 80 82 86 88 91 93 93 94 96 98 100 103 106
58 57 57 57 57 56 55 55 52 53 55 55 57 58 61 64 67 72 79 81 85 88 93 98 101 102 103 103 104 106 108 111 115

GFSFLT1_250_spd_045.txt.gz
Wind_Speed
57 57 56 55 54 54 55 57 56 55 54 53 52 54 54 58 54 55 51 52 59 61 62 66 64 61 62 63 58 51 47 48 48
59 59 59 58 58 57 57 58 58 57 58 57 59 56 60 61 60 59 57 58 59 62 64 63 62 61 61 61 55 48 48 45 45
63 62 62 63 63 63 62 61 61 62 62 62 60 61 64 64 63 61 60 63 62 65 65 64 62 61 59 60 52 46 44 42 40
68 66 67 66 67 66 65 65 65 66 65 65 64 62 63 63 63 63 64 65 65 66 66 63 61 60 60 56 48 44 38 37 34
72 71 71 70 68 68 68 67 67 67 67 68 67 65 66 67 68 68 66 66 66 68 66 63 64 57 58 55 48 46 42 38 36
77 77 76 75 74 73 73 72 70 70 70 69 71 71 69 69 69 69 67 67 68 68 65 67 63 56 54 51 48 46 43 40 38
81 80 80 80 78 75 75 76 77 77 76 76 75 73 74 73 71 73 68 69 69 65 66 64 62 56 52 48 46 44 43 41 37
83 79 78 76 76 78 78 77 77 78 79 80 79 78 77 77 76 76 73 69 66 66 64 65 61 55 51 46 44 42 41 39 37
86 84 83 83 83 83 83 83 83 83 83 82 83 81 77 77 76 76 73 69 66 65 65 63 59 56 51 47 45 43 41 42 42
87 88 87 88 88 87 87 85 86 86 85 80 79 79 79 80 75 74 71 70 67 66 65 63 57 54 53 49 47 46 46 47 48
81 79 80 80 83 87 87 84 82 82 82 79 80 83 80 76 73 69 70 70 69 68 64 61 56 54 54 50 47 49 51 51 52
74 74 75 77 77 78 78 77 77 80 79 81 82 81 78 74 70 70 69 70 68 67 63 56 55 55 53 51 52 54 55 55 56
70 70 71 70 71 70 70 71 74 74 76 76 74 72 71 71 69 69 68 65 65 62 60 55 56 57 55 56 57 58 59 61 63
69 67 66 62 63 64 63 60 61 61 64 65 65 65 67 67 66 64 63 63 62 59 56 57 57 57 58 60 62 63 65 66 69
70 68 66 62 64 63 59 57 59 60 59 60 59 59 61 61 61 63 62 62 59 56 58 58 58 60 63 64 66 69 69 72 74
71 69 67 66 62 57 56 58 56 55 52 52 54 55 57 59 59 60 61 58 56 58 58 59 62 64 67 69 72 74 75 78 81
72 72 71 67 61 59 59 58 56 56 55 54 54 55 56 56 57 58 56 57 59 60 61 63 66 68 71 74 76 78 81 84 87
68 70 71 66 63 61 59 60 59 59 56 55 55 56 56 57 57 57 58 60 61 63 66 68 70 73 75 77 80 83 87 90 93
67 68 69 66 65 63 63 62 61 59 58 58 57 58 58 55 57 61 64 65 67 69 72 75 77 80 81 83 86 90 93 97 99
71 70 69 67 65 64 65 63 61 61 60 61 59 61 58 59 60 63 66 68 71 73 77 83 86 88 89 92 94 97 101 103 103

GFSFLT1_250_spd_048.txt.gz
Wind_Speed
55 56 57 57 57 57 57 57 57 56 56 57 56 57 56 57 55 55 54 56 59 57 56 55 57 62 62 61 59 58 61 59 56
60 59 59 61 61 62 61 60 60 60 60 61 61 61 59 60 60 59 61 61 59 60 60 62 65 63 61 61 60 60 60 55 52
66 65 64 64 64 63 64 64 64 64 63 64 64 63 62 61 62 63 63 63 63 63 67 68 65 60 61 58 59 59 58 55 50
72 71 71 70 70 69 69 68 68 68 68 68 68 66 65 64 64 65 64 66 67 68 68 67 67 62 62 58 57 57 58 53 48
76 77 77 76 76 75 74 72 73 72 72 72 72 72 70 69 70 71 69 70 71 72 71 69 69 67 64 59 57 58 57 52 47
80 80 81 80 80 80 79 78 77 77 77 76 73 75 73 72 75 75 73 74 74 74 71 69 69 68 66 62 57 56 54 51 47
83 83 84 84 83 82 81 82 78 75 74 75 76 76 77 76 77 77 78 78 78 75 70 69 70 69 67 64 60 57 53 51 47
84 84 84 85 86 86 83 81 83 79 76 81 83 83 83 82 82 82 82 80 75 73 74 69 67 67 66 64 62 59 52 51 49
84 85 86 86 85 86 86 88 86 84 86 86 88 86 86 86 85 89 81 79 77 73 73 67 68 66 65 63 62 58 53 51 48
81 84 86 86 87 88 87 84 85 83 82 85 84 84 85 83 79 79 79 76 75 74 69 66 68 67 63 63 59 55 52 51 50
73 76 77 79 78 80 80 77 78 79 77 76 76 74 75 77 76 78 77 75 72 68 66 65 66 66 63 62 56 54 53 53 52
72 73 73 75 74 73 74 76 75 75 74 73 74 73 70 70 73 70 70 67 66 66 64 65 64 64 62 59 54 53 54 55 53
74 73 74 75 73 74 74 73 71 72 71 69 68 64 64 64 65 65 63 62 62 61 61 62 62 61 61 58 53 54 56 57 56
73 76 75 75 74 74 73 71 71 69 66 63 62 63 62 60 60 60 59 59 59 60 59 58 60 60 60 55 55 56 57 58 60
69 72 74 77 75 74 75 73 72 70 65 60 61 61 58 58 52 53 54 55 54 56 58 58 58 58 56 56 57 59 60 62 64
64 66 68 71 73 74 76 74 73 70 65 62 61 60 58 58 58 58 56 55 56 56 58 56 56 57 58 59 62 63 65 67 69
61 64 67 67 70 73 76 75 74 71 66 65 62 59 61 62 59 59 57 56 58 59 59 58 58 60 63 65 66 68 71 74 75
58 63 66 68 68 70 71 72 73 71 68 66 64 61 61 62 63 61 60 59 60 60 60 62 63 65 67 70 72 75 77 80 82
56 58 65 69 69 71 70 68 67 68 67 67 65 64 64 63 64 64 63 63 63 63 65 68 70 70 72 75 78 80 83 87 89
57 58 62 68 69 69 70 70 69 68 67 67 66 66 67 66 65 65 65 65 66 67 70 73 76 77 79 81 82 85 87 90 94

GFSFLT1_250_spd_054.txt.gz
Wind_Speed
54 54 54 54 55 56 56 57 57 57 58 60 61 63 63 64 65 66 66 66 65 66 67 65 63 62 62 62 65 67 67 68 66
59 59 59 59 59 61 61 62 63 62 63 64 66 66 67 68 68 68 69 69 69 69 70 69 68 69 68 67 68 66 69 69 71
63 65 66 65 65 65 66 67 68 68 68 68 69 70 72 72 72 72 73 73 73 73 73 72 70 70 70 70 72 75 74 73 75
71 71 71 71 70 71 72 72 73 74 74 73 74 76 77 77 77 77 77 78 77 77 76 73 74 74 76 78 78 77 79 79 78
75 76 76 77 78 78 77 77 79 79 79 79 78 79 80 80 80 81 81 82 81 78 79 79 77 80 78 80 81 80 79 80 75
78 80 80 80 79 79 79 79 81 81 82 83 82 83 83 83 83 83 83 83 83 82 81 81 80 82 78 81 79 78 76 71 68
78 79 79 81 81 81 81 83 83 84 83 84 84 84 83 84 86 85 84 85 85 84 82 82 81 79 78 76 72 71 70 70 68
79 81 81 82 83 83 85 86 84 84 85 85 84 84 85 86 87 85 83 83 85 86 85 85 77 75 75 73 73 71 70 70 69
81 81 84 81 80 80 81 82 81 81 81 81 79 80 84 83 82 85 83 81 80 80 78 74 71 71 72 71 68 66 64 61 57
78 77 74 72 74 74 74 75 74 75 75 75 74 73 74 75 75 75 73 72 72 69 68 68 67 68 66 65 63 63 61 53 51
72 69 68 68 69 70 72 73 72 72 74 74 74 74 74 74 74 73 70 68 67 67 67 66 66 65 65 63 62 60 54 51 49
68 66 66 67 69 68 67 67 69 70 71 73 74 74 75 77 76 75 73 71 70 69 67 67 66 65 65 62 59 56 54 51 48
66 64 65 66 66 66 67 66 66 66 67 70 71 72 74 78 77 76 76 74 73 71 70 69 68 66 64 62 59 59 57 53 51
62 61 63 63 62 63 64 66 67 67 66 67 68 70 71 74 76 77 77 77 76 74 72 70 69 68 65 64 62 61 58 56 55
55 56 60 62 64 63 64 64 65 66 66 66 67 68 70 70 72 73 74 75 75 75 74 72 71 70 68 66 63 61 60 58 58
58 57 57 56 59 62 64 64 63 65 66 68 67 67 68 68 69 71 72 72 72 73 74 74 73 73 72 71 66 64 62 61 60
57 57 56 57 58 59 59 61 62 64 66 68 69 69 69 68 69 69 70 71 71 71 73 74 75 74 75 73 71 69 67 65 63
65 60 62 64 63 62 58 54 56 58 61 63 65 68 69 68 68 68 69 70 70 72 72 72 73 73 74 75 73 73 72 70 67
69 66 64 59 60 62 56 60 63 64 63 62 65 66 68 67 68 69 71 72 71 71 72 72 73 75 75 77 78 77 76 75 72
62 64 67 66 65 63 60 63 68 68 66 64 64 64 67 66 67 69 70 70 71 73 74 73 74 76 78 80 80 79 80 80 78

GFSFLT1_250_spd_057.txt.gz
Wind_Speed
50 53 55 56 57 57 56 57 58 58 58 60 61 62 62 62 63 64 65 67 68 68 67 67 68 68 69 69 68 68 67 66 65
54 55 55 57 57 58 59 62 63 64 64 64 67 69 68 68 69 70 70 71 71 72 73 73 73 73 74 72 73 70 68 69 69
60 60 61 62 64 64 66 67 67 69 70 71 72 72 73 73 75 76 76 77 77 77 78 78 77 78 77 74 76 74 75 73 74
63 64 66 67 68 70 72 73 73 73 75 76 78 79 79 78 79 81 80 80 81 81 79 80 80 81 81 81 79 78 79 77 76
67 69 70 70 71 74 73 75 77 79 80 80 81 82 81 81 83 84 84 83 83 83 83 82 83 84 83 84 81 80 81 79 78
70 70 72 73 75 75 76 77 78 79 80 81 82 83 83 84 84 85 85 85 85 84 83 84 85 84 83 83 81 81 82 81 76
73 74 74 76 77 77 79 79 79 81 82 83 83 85 86 86 87 86 85 84 84 83 82 83 83 83 82 82 82 82 80 71 67
76 75 78 79 81 81 81 81 83 85 84 85 85 84 84 84 83 81 80 80 80 79 79 80 79 79 79 77 74 71 67 63 62
79 79 80 83 82 83 82 82 84 83 83 82 81 80 80 79 78 77 76 76 76 76 74 73 72 71 69 66 64 62 59 60 59
80 80 82 81 81 79 81 82 81 81 78 76 75 74 75 76 76 75 74 74 74 74 72 71 69 67 67 64 62 60 60 59 59
77 79 80 81 82 81 80 79 77 76 73 72 73 74 74 75 75 75 74 74 75 74 74 72 71 70 68 67 65 64 62 61 59
79 79 79 76 76 75 73 72 72 70 70 71 71 71 72 72 72 72 73 73 74 74 74 73 72 71 70 70 70 69 65 63 61
72 69 70 70 69 70 68 66 66 68 69 68 67 68 68 70 69 70 70 71 72 72 71 72 72 72 73 73 73 72 69 67 64
67 66 65 64 60 60 62 61 61 63 65 67 68 67 67 67 69 69 70 70 69 70 71 71 70 70 71 71 71 71 71 69 68
67 62 59 60 61 61 60 62 63 61 60 61 62 64 65 66 68 69 71 72 71 71 70 70 70 70 71 70 70 70 71 70 70
61 65 63 63 64 63 61 62 64 63 63 61 60 60 59 61 64 66 68 69 72 73 72 70 71 72 71 71 72 71 71 72 72
66 69 67 67 67 68 70 72 68 68 66 65 64 60 58 60 62 65 67 69 69 70 71 70 71 72 72 71 71 71 71 72 71
71 72 71 71 71 70 69 71 73 72 69 68 67 60 62 61 67 67 67 67 67 69 70 70 71 72 73 74 74 73 72 73 73
71 69 71 74 73 70 68 72 74 73 71 71 70 68 70 71 74 74 72 70 69 69 69 69 72 73 74 75 76 76 76 76 77
70 71 73 71 72 73 72 75 79 79 78 76 77 76 76 79 81 79 73 73 71 71 70 69 70 72 73 74 74 76 78 79 81

GFSFLT1_250_spd_060.txt.gz
Wind_Speed
46 47 48 48 49 51 52 53 54 56 58 59 59 59 61 62 64 64 66 67 68 70 69 70 71 71 72 74 74 74 74 74 73
51 52 54 52 54 55 55 56 58 60 61 62 65 65 67 68 68 70 71 72 73 74 75 76 76 78 77 78 78 78 78 77 76
55 55 56 57 58 58 59 61 62 64 67 67 68 68 70 71 72 74 75 75 78 76 77 79 80 80 81 81 79 80 78 78 77
57 58 60 61 61 62 62 64 66 67 69 70 72 71 73 74 74 75 77 78 79 78 78 79 80 81 81 81 80 79 77 78 76
60 61 61 63 63 63 64 67 69 70 72 75 74 75 75 76 76 78 80 81 80 80 81 81 82 82 81 81 81 78 77 77 77
63 64 66 66 65 67 70 71 73 74 77 78 79 78 79 77 80 81 83 83 83 82 82 82 81 80 78 77 77 74 73 74 74
67 67 67 70 73 75 75 74 76 77 77 78 79 80 80 80 81 82 83 83 81 79 79 77 76 75 74 72 72 72 70 67 66
72 73 75 75 76 76 78 77 79 79 79 80 81 78 80 82 82 81 80 78 77 74 73 72 73 71 69 68 68 67 65 62 60
75 77 77 76 78 78 78 79 79 81 81 81 81 83 83 81 80 79 77 73 73 71 70 70 71 72 71 69 69 68 66 63 60
79 79 80 77 79 79 80 79 80 81 83 85 82 82 81 77 74 72 70 72 72 70 69 68 69 70 70 70 70 69 68 65 63
79 78 78 79 78 79 78 80 80 80 77 80 79 77 74 71 67 67 67 68 66 65 66 66 66 66 66 68 69 68 68 66 65
74 73 77 72 73 73 71 73 75 76 71 72 68 66 63 63 64 64 63 64 64 64 64 64 64 65 66 65 66 67 67 66 67
68 69 69 68 70 70 69 71 69 69 67 67 67 66 65 61 60 58 57 59 60 61 61 62 62 64 66 66 65 66 66 66 67
69 67 63 64 65 67 64 61 63 64 64 64 63 63 61 61 61 59 58 59 57 56 57 58 61 64 65 66 67 67 66 67 66
67 68 65 67 67 65 62 64 68 68 67 67 67 65 67 65 64 63 64 63 60 59 56 57 59 62 64 66 67 68 68 67 67
67 67 63 63 64 64 65 69 70 68 70 69 70 71 71 69 68 65 64 65 65 64 60 64 65 66 64 65 65 67 69 69 68
68 67 67 66 68 71 74 73 70 72 74 76 78 76 73 69 65 64 64 66 67 71 74 74 72 72 69 66 66 67 68 69 70
67 67 70 73 74 76 76 76 74 75 76 79 78 75 72 69 70 72 72 73 74 76 77 77 79 78 74 70 67 67 67 67 69
76 77 78 76 77 78 78 79 74 79 78 80 81 78 76 78 78 79 79 77 78 80 81 81 82 79 76 71 67 67 67 68 69
76 77 80 78 79 78 80 79 80 82 84 79 82 83 80 80 79 81 83 85 85 84 80 78 77 76 74 72 69 65 65 67 66

GFSFLT1_250_spd_066.txt.gz
Wind_Speed
41 43 44 45 45 45 45 46 46 46 46 47 49 50 51 52 52 53 55 57 60 61 62 62 64 66 65 65 65 66 66 67 69
45 45 46 46 47 47 48 49 49 49 51 52 53 53 52 52 55 58 61 62 63 65 65 65 66 66 67 68 68 67 69 70 71
47 48 49 50 52 52 52 52 52 53 53 53 54 55 56 58 61 62 62 63 65 67 68 67 69 68 69 68 69 70 71 72 69
51 52 53 53 55 55 54 56 56 57 57 57 56 57 59 63 64 65 66 66 66 71 68 70 70 71 71 72 73 73 73 70 68
55 54 55 56 57 57 58 59 61 60 60 59 60 62 63 65 65 68 68 68 70 70 71 71 70 72 72 74 72 72 70 64 62
56 57 58 59 59 60 62 63 63 61 62 64 65 65 66 66 69 69 69 69 70 70 69 71 72 71 72 70 67 64 61 60 60
59 60 60 61 62 61 63 63 63 64 66 68 68 68 69 69 70 68 67 68 69 69 72 70 70 69 65 61 60 59 58 58 57
62 63 63 63 64 64 65 66 68 70 72 70 70 70 68 69 69 68 68 69 66 66 66 66 61 60 59 56 53 53 54 52 52
63 64 65 65 65 68 71 71 72 70 69 69 70 70 69 69 69 68 67 65 65 66 63 59 58 54 51 51 48 47 45 47 48
67 67 67 68 70 71 69 71 71 70 71 71 70 68 68 70 68 67 66 64 67 62 62 61 57 56 55 53 50 48 45 43 42
70 72 71 70 71 72 74 72 71 72 72 72 69 68 70 69 68 66 64 63 63 61 56 56 56 57 55 53 50 49 46 46 48
73 73 74 74 75 75 74 72 72 74 71 70 68 70 70 67 64 62 64 63 64 62 59 59 57 58 56 53 52 49 48 49 52
76 77 77 76 76 74 73 73 72 72 74 72 71 69 67 63 64 64 67 66 66 64 64 62 62 62 59 60 57 57 57 58 57
77 77 77 76 76 76 74 73 72 74 74 73 69 67 65 68 69 70 70 69 68 69 67 67 65 68 69 63 63 65 63 61 60
77 78 79 77 76 74 74 73 73 74 72 70 67 67 69 70 73 71 73 75 73 73 73 70 70 73 73 68 67 66 65 64 63
81 81 80 77 75 74 73 71 71 70 68 68 70 71 73 74 74 72 75 77 77 78 75 75 77 78 76 76 73 67 66 65 67
82 80 80 78 76 76 74 72 72 72 75 74 74 74 76 77 76 78 80 80 80 80 79 78 81 83 81 77 75 73 74 73 73
81 81 81 82 83 80 77 74 73 72 73 74 75 76 77 80 82 82 85 83 83 82 82 80 84 85 86 82 76 79 79 76 73
82 83 82 82 82 80 78 79 77 77 80 80 82 81 82 85 86 87 86 86 85 83 82 84 81 86 84 85 82 81 79 77 77
84 83 83 82 80 82 82 83 83 81 81 84 85 87 88 88 88 88 89 88 85 84 85 85 88 89 89 87 84 82 80 80 78

GFSFLT1_250_spd_069.txt.gz
Wind_Speed
35 37 39 41 42 43 43 42 42 44 47 48 47 48 49 51 52 54 53 53 55 56 58 60 62 64 64 66 68 68 68 67 67
43 44 44 44 43 44 44 45 47 49 51 51 50 53 53 56 58 56 56 58 60 60 61 63 64 64 67 68 67 68 69 68 68
47 46 47 47 48 48 49 51 52 53 53 53 54 56 57 55 57 59 60 61 62 63 65 66 64 64 66 67 66 65 66 67 66
49 50 51 52 53 53 52 53 55 56 55 56 58 59 59 60 59 62 63 65 65 66 64 64 62 63 65 65 65 65 66 65 64
53 54 54 54 55 55 55 58 59 59 59 59 61 61 62 63 65 68 69 66 64 63 63 62 62 61 62 62 63 60 59 57 54
57 55 55 56 57 58 59 61 61 61 61 62 63 64 66 68 67 65 64 64 64 63 61 60 61 61 61 60 58 57 53 50 50
57 57 58 60 61 62 63 64 64 65 65 64 66 67 68 68 67 67 65 62 64 63 59 59 59 60 60 59 59 55 49 51 47
62 62 64 65 65 66 64 65 65 65 67 68 68 69 70 68 68 67 66 63 63 61 61 59 58 59 59 58 57 55 51 50 45
66 66 67 66 66 66 67 67 68 69 70 71 71 71 69 68 67 67 67 65 64 62 57 56 58 58 54 55 53 51 48 48 48
64 66 67 68 67 69 70 70 71 71 73 74 71 70 70 68 67 67 66 65 65 59 57 59 63 57 57 54 56 54 51 51 48
67 70 71 72 72 73 73 74 74 75 75 74 71 70 70 68 68 67 66 66 65 62 61 63 62 62 61 58 59 57 58 57 54
71 72 74 76 76 76 76 75 76 75 75 72 72 72 70 69 69 68 68 66 62 65 66 65 65 64 63 62 61 59 61 62 62
76 77 77 78 78 78 78 79 78 77 74 72 72 72 72 71 70 68 66 66 66 67 69 69 69 67 68 67 66 63 62 65 67
79 80 81 79 80 80 80 78 76 73 74 76 74 73 74 69 69 67 66 66 69 70 69 72 71 72 72 70 68 66 64 69 68
85 82 82 82 79 81 79 77 76 76 76 74 73 73 70 67 68 69 71 72 73 72 75 73 74 75 75 73 72 70 70 73 73
83 84 83 81 80 81 81 80 79 79 77 77 77 75 71 71 71 71 73 75 75 75 75 77 78 79 76 76 75 74 74 76 75
83 83 83 83 83 82 83 84 82 82 81 81 77 77 74 74 73 74 75 78 77 76 78 81 82 82 79 80 78 77 77 75 76
86 86 87 85 85 84 85 86 84 81 80 81 80 76 75 76 76 75 78 79 80 81 84 83 84 85 83 82 79 78 76 77 81
89 88 87 89 87 86 89 88 85 84 83 85 82 79 79 80 79 82 83 83 85 87 87 87 87 88 85 86 83 84 80 83 87
92 93 91 91 90 90 88 87 87 89 85 84 84 83 83 82 84 83 86 87 90 90 90 89 89 92 88 87 87 87 89 91 91

GFSFLT1_250_spd_072.txt.gz
Wind_Speed
32 33 33 34 36 38 42 43 45 45 45 46 47 48 49 50 51 53 54 55 57 58 58 59 62 65 64 65 64 64 62 62 64
33 36 38 39 40 43 45 47 47 47 48 50 49 50 51 53 55 56 58 59 58 60 63 65 65 64 62 62 61 62 60 61 60
37 39 41 42 43 46 47 49 50 50 51 51 52 54 57 58 58 60 60 61 63 64 65 64 64 63 60 61 60 57 57 58 57
42 44 44 45 48 50 51 52 52 53 53 55 57 59 61 61 63 63 62 63 64 64 65 67 63 60 59 56 55 55 57 56 55
45 47 49 51 52 53 53 53 54 55 58 61 62 62 62 62 64 65 66 67 66 65 65 65 60 57 56 54 51 54 56 54 52
48 48 49 51 52 53 55 57 59 61 61 62 62 62 64 64 65 66 68 69 69 65 63 60 57 57 56 51 50 54 52 53 49
51 52 53 56 57 59 60 62 63 63 63 64 63 64 65 67 69 69 68 68 66 63 60 58 56 56 54 51 53 52 54 51 51
56 57 58 60 62 63 63 64 64 64 65 66 67 68 68 69 71 69 67 63 62 60 58 58 58 58 55 54 55 55 53 49 51
61 63 64 65 67 66 64 64 66 66 69 70 71 72 70 70 73 72 70 66 64 64 61 59 59 58 57 57 58 56 55 54 54
66 67 69 70 70 68 68 68 70 70 73 73 74 73 73 72 74 73 70 68 65 63 62 61 59 58 57 58 59 59 57 56 56
72 73 74 72 70 68 71 73 75 76 77 78 76 74 75 75 73 72 71 69 66 65 62 60 59 59 61 61 62 61 59 59 58
75 77 75 73 73 72 75 77 79 79 80 79 77 76 77 76 75 73 72 70 70 67 63 59 59 61 63 65 64 63 62 62 60
79 78 76 76 77 77 79 80 81 81 81 81 80 79 78 77 77 73 72 73 70 67 63 61 64 65 65 66 67 64 65 64 63
79 78 79 80 82 82 83 83 83 83 82 82 80 79 79 79 79 78 73 73 71 68 70 68 67 68 69 70 69 68 70 68 66
80 82 83 85 85 87 87 86 84 85 84 82 81 82 80 79 80 81 74 71 71 74 70 69 69 69 70 71 72 72 74 73 72
84 86 87 86 88 89 90 91 90 87 87 85 83 83 82 82 83 81 77 73 74 70 71 71 69 71 73 76 79 77 77 77 75
88 89 90 92 94 94 94 95 94 94 94 89 88 87 83 86 85 81 78 77 74 74 73 74 74 76 79 80 82 82 82 80 79
90 94 96 98 99 100 100 99 99 95 97 94 91 89 86 87 83 80 82 81 77 78 76 76 78 80 82 83 85 85 84 83 82
96 97 99 99 102 101 101 98 97 99 95 96 92 92 86 87 85 87 84 83 79 79 80 82 85 84 84 86 86 85 87 87 86
102 104 104 105 106 106 101 99 97 94 94 96 95 93 92 90 90 88 86 86 86 83 85 89 88 87 86 84 86 88 82 84 89

GFSFLT1_250_spd_075.txt.gz
Wind_Speed
27 28 28 30 33 34 34 37 39 40 42 45 49 49 48 48 51 53 56 57 58 59 61 61 62 63 63 64 63 63 63 59 56
28 28 29 32 32 34 38 40 42 45 47 49 49 49 49 52 54 57 58 60 60 59 61 62 62 64 67 63 62 59 56 53 50
32 33 33 34 35 38 41 43 46 48 49 50 50 51 54 56 57 59 60 61 60 62 63 65 66 64 63 60 59 56 52 49 49
34 35 35 37 39 41 44 45 46 48 50 51 54 56 59 60 60 60 61 62 64 66 66 64 64 63 60 58 55 52 49 47 48
41 42 42 43 45 46 47 48 49 50 53 55 58 61 62 61 61 62 64 65 67 65 65 64 65 60 59 57 54 52 48 48 48
44 44 46 46 47 49 51 51 53 55 59 61 63 63 64 63 63 66 68 70 67 67 66 67 64 60 58 56 54 52 49 48 47
47 47 49 50 51 52 54 58 60 63 64 66 66 66 65 66 68 70 73 74 70 68 70 67 64 62 58 57 55 53 52 50 49
51 52 54 55 56 58 60 62 64 68 70 71 69 66 67 71 73 75 75 73 72 73 70 68 65 63 60 57 56 53 53 53 53
56 58 60 61 62 64 66 69 70 72 72 71 70 70 72 75 77 77 75 73 74 73 72 69 65 64 61 59 57 55 54 54 55
60 62 63 64 67 69 70 71 73 73 75 73 73 74 78 78 79 78 77 76 77 74 72 69 66 64 62 59 57 56 57 57 58
64 66 67 69 71 73 75 75 74 76 75 76 78 79 80 79 80 82 81 80 79 77 73 69 67 66 63 60 62 58 60 60 58
70 71 73 75 76 78 77 79 78 79 80 80 81 81 82 81 83 83 85 81 83 81 73 71 70 67 61 64 65 62 61 62 59
75 76 79 80 81 79 84 83 85 84 83 84 84 85 84 86 86 85 86 87 84 81 77 72 70 67 63 66 65 63 63 62 61
79 81 82 80 81 85 87 85 86 88 89 87 88 89 90 90 88 88 89 88 85 81 79 76 73 68 65 67 65 64 65 65 63
83 81 78 80 82 83 86 88 89 91 91 92 92 92 93 93 94 90 89 87 85 81 80 75 72 69 69 69 67 69 69 68 71
80 77 79 81 82 84 87 91 94 94 96 97 98 97 99 98 96 95 89 86 82 81 79 75 74 72 73 71 70 71 73 73 76
77 80 84 84 86 88 92 94 96 101 102 103 103 104 102 101 100 95 88 83 82 81 78 77 78 77 76 73 72 74 77 79 78
80 82 85 89 91 93 96 99 101 103 106 108 110 109 106 104 99 93 87 86 84 83 81 81 82 80 79 78 79 79 80 81 81
84 86 90 93 97 99 101 102 105 106 108 111 113 115 109 100 93 93 91 90 88 86 86 83 82 82 81 82 83 84 84 83 84
92 94 96 98 101 104 105 107 108 111 112 113 110 107 104 97 94 92 94 95 95 93 90 87 85 84 83 84 84 82 84 84 82

GFSFLT1_250_spd_078.txt.gz
Wind_Speed
31 30 28 28 26 28 27 28 30 33 35 38 40 42 43 46 48 51 54 56 56 57 58 58 62 63 62 60 61 61 58 57 54
27 28 26 25 27 28 29 32 34 36 38 42 42 44 47 49 52 55 57 58 60 60 59 62 66 64 61 61 60 60 57 55 52
27 28 28 28 30 31 33 35 39 40 41 43 45 47 49 54 56 59 61 61 60 62 64 66 68 63 61 62 60 60 56 55 52
28 28 30 32 34 38 40 41 41 42 44 46 49 52 55 58 61 63 63 63 63 65 67 69 65 62 63 62 64 59 57 54 52
32 34 36 38 39 40 42 41 43 46 48 51 55 56 58 62 66 67 67 65 66 68 71 67 65 65 65 67 64 59 58 55 52
37 37 39 40 42 44 45 46 49 51 54 57 61 63 64 66 69 70 69 68 69 72 70 68 68 68 67 69 64 59 58 57 53
42 41 43 44 46 47 49 51 54 56 58 62 64 66 69 72 72 70 72 73 73 70 70 70 70 70 71 70 66 60 60 57 56
44 45 46 47 49 50 52 55 56 58 62 64 67 71 73 74 74 75 75 76 75 73 73 75 75 73 72 68 66 63 61 59 55
48 49 50 53 54 56 57 59 62 63 66 69 73 74 77 77 77 77 78 79 76 78 78 79 79 74 73 70 67 63 62 61 56
55 56 58 58 59 61 62 64 67 69 72 75 76 79 80 81 81 81 81 81 81 83 83 82 79 76 74 72 67 64 63 61 55
58 60 61 62 64 67 68 70 72 74 76 78 80 82 82 84 84 85 86 85 86 87 86 84 80 78 75 72 69 67 63 61 57
63 64 65 66 68 71 73 75 78 77 79 80 82 83 85 85 87 87 89 89 91 91 91 85 86 82 77 70 68 67 59 59 57
67 67 69 71 73 75 78 80 76 79 82 84 84 85 84 87 90 91 93 94 93 92 92 91 88 80 74 72 66 65 60 59 61
71 72 73 75 77 80 81 75 79 83 83 86 86 86 89 91 94 96 96 96 97 99 92 89 83 80 75 71 66 64 62 60 62
74 76 77 78 79 79 75 77 81 83 86 87 87 90 94 97 98 99 99 102 103 98 89 85 82 79 75 71 72 68 65 66 67
77 80 78 78 76 74 78 83 84 86 90 90 93 96 99 101 104 102 105 107 102 91 86 83 80 79 77 77 76 74 72 70 70
80 80 79 77 76 83 85 82 87 93 94 97 98 100 100 102 106 109 111 102 95 88 83 80 82 82 79 79 80 78 77 75 72
82 80 80 79 84 84 86 90 91 95 99 101 104 101 104 109 114 116 110 103 91 87 86 90 86 85 84 82 83 82 78 78 76
80 79 80 84 85 89 91 93 96 99 102 103 105 108 112 115 119 109 103 99 96 95 96 96 96 96 92 85 85 83 81 82 80
84 87 86 89 91 93 95 97 100 101 105 104 111 115 119 121 105 93 94 98 102 103 101 99 100 96 91 84 87 88 80 82 79

GFSFLT1_250_spd_081.txt.gz
Wind_Speed
29 31 28 27 25 24 26 27 26 28 28 31 34 38 39 40 43 46 48 53 55 58 57 59 59 62 64 62 59 60 60 62 62
26 26 27 26 26 25 26 27 28 30 34 37 37 38 41 43 46 50 53 57 59 60 59 61 64 65 64 61 61 61 61 63 61
25 26 27 27 26 25 26 30 34 36 37 38 40 42 44 47 50 52 56 59 61 62 62 62 65 64 63 62 65 64 64 63 62
27 27 27 26 26 28 32 34 36 38 40 42 43 45 48 51 54 56 60 63 65 66 65 67 67 67 65 67 68 68 66 64 62
27 28 27 29 31 33 34 36 39 41 43 46 48 48 52 54 57 61 64 66 68 69 68 70 73 71 71 72 73 72 69 67 61
31 32 33 34 36 37 38 40 42 44 46 49 51 52 56 59 62 65 67 69 71 72 73 76 77 77 76 78 76 75 72 66 61
36 36 37 39 39 40 42 43 46 48 50 53 55 58 60 63 66 67 72 73 73 76 78 80 81 81 82 79 78 73 74 68 62
39 39 41 42 43 44 46 49 52 54 55 57 60 62 65 68 68 71 74 76 79 79 80 81 83 84 83 81 80 75 72 68 63
43 44 45 47 48 50 51 54 55 57 59 61 64 68 70 71 74 76 79 81 81 80 83 86 88 87 87 84 83 73 68 67 63
48 49 51 52 53 55 56 58 59 61 63 65 68 71 73 75 76 81 84 84 83 84 87 91 89 89 88 90 83 72 68 65 62
55 55 55 56 58 59 61 62 63 65 68 69 71 73 75 77 81 86 87 86 85 88 92 92 92 93 94 91 79 70 67 65 61
59 60 60 60 62 62 65 66 68 70 73 74 74 76 78 81 86 88 88 88 89 93 93 93 95 98 98 87 76 69 66 64 62
62 64 63 63 65 67 69 70 72 74 76 75 77 78 79 85 89 90 90 92 95 97 95 96 101 103 88 78 72 67 66 62 59
65 63 66 69 70 71 73 74 75 77 75 76 78 81 84 88 91 93 93 96 99 98 101 104 106 96 84 76 70 67 64 63 63
69 71 73 74 74 75 77 78 78 77 77 80 82 84 87 91 92 94 99 100 100 103 108 110 105 90 82 75 73 71 71 73 68
76 76 77 77 79 79 79 79 77 80 82 82 86 88 91 94 96 98 101 102 104 109 113 110 97 87 82 82 83 85 83 80 76
78 79 80 80 79 80 78 79 80 82 84 86 91 91 94 98 101 101 102 104 109 114 112 103 94 89 90 92 94 85 79 72 71
79 79 80 80 80 79 79 82 83 85 90 93 98 97 97 99 104 106 106 111 115 112 102 96 96 96 97 87 79 73 64 67 62
81 82 83 82 82 83 86 87 91 93 94 99 101 100 101 104 103 105 112 116 114 104 97 98 97 92 82 77 72 68 57 67 72
85 85 85 85 85 85 88 91 93 95 98 100 102 106 107 106 108 110 115 112 106 102 101 99 89 82 76 71 71 72 72 72 63

GFSFLT1_250_spd_084.txt.gz
Wind_Speed
33 32 30 28 27 24 24 25 24 23 23 24 29 31 31 34 38 39 41 44 47 50 54 56 58 58 60 63 66 67 66 67 68
30 27 25 25 24 23 25 24 24 22 26 29 31 33 34 36 40 42 44 47 50 53 56 59 61 63 64 67 71 73 72 72 72
27 25 25 24 24 25 24 23 24 27 29 31 33 35 37 40 43 46 49 50 53 56 58 62 66 67 68 71 74 77 76 75 73
26 26 27 25 25 24 24 26 28 30 31 33 36 38 41 43 46 48 51 53 56 59 62 67 69 69 71 75 78 79 79 79 77
28 28 27 26 25 26 28 31 33 34 36 38 40 43 45 48 50 52 54 58 60 63 68 71 72 74 74 76 79 80 81 79 79
30 30 30 29 30 31 33 36 37 38 40 43 45 48 49 51 54 56 57 61 63 68 72 74 75 76 78 80 83 84 83 82 85
34 34 33 34 34 36 37 39 40 42 45 48 50 51 52 54 57 60 63 65 68 71 74 77 78 78 81 83 87 85 86 86 79
35 36 37 38 39 40 41 43 45 47 50 52 53 55 57 59 61 64 66 68 72 76 78 80 81 82 83 89 90 88 89 91 74
40 40 42 43 44 45 46 47 49 52 53 54 56 59 62 65 66 68 70 73 76 78 81 82 86 85 89 93 90 90 92 89 71
44 44 45 47 48 48 50 52 53 55 56 57 61 63 66 68 71 73 75 77 80 82 82 86 87 89 92 95 93 94 96 83 69
47 47 49 50 51 52 54 57 57 59 59 61 65 67 70 73 74 76 77 80 83 83 87 89 90 93 97 95 97 99 93 78 65
52 52 53 54 55 57 58 59 62 61 64 66 68 72 73 75 77 78 80 82 84 86 90 91 94 97 99 98 101 98 86 72 63
57 59 58 60 61 62 63 62 62 67 69 70 73 75 77 77 79 79 81 84 87 91 93 94 100 101 102 104 103 96 83 74 67
62 62 62 64 66 66 63 65 70 72 72 74 76 78 77 79 80 84 85 90 94 96 97 101 102 104 106 107 106 95 88 82 79
64 66 66 66 65 65 70 73 75 76 75 76 79 79 79 82 85 86 89 95 97 100 101 104 106 108 109 109 103 93 89 88 82
68 67 65 68 72 73 75 76 77 77 78 79 80 80 82 87 89 90 94 97 100 102 106 107 110 111 111 108 97 92 90 76 69
69 71 74 75 76 79 80 79 80 81 82 81 79 82 85 88 91 92 97 100 104 108 108 110 110 111 109 100 96 92 80 69 58
77 78 79 80 82 82 82 83 81 81 82 83 84 84 85 89 93 99 103 106 109 110 110 110 110 109 101 100 95 82 72 63 55
81 83 85 84 84 84 83 82 83 84 84 86 88 91 93 93 96 100 106 108 108 109 110 107 106 104 100 97 84 75 69 67 66
83 82 83 84 84 84 84 85 87 87 88 90 92 94 98 99 102 105 104 107 107 109 109 106 101 99 98 88 77 69 65 65 67

GFSFLT1_250_spd_087.txt.gz
Wind_Speed
29 29 30 30 30 30 26 25 24 24 22 21 22 23 25 27 30 32 35 39 41 43 46 48 50 54 57 62 66 68 70 72 75
28 28 27 29 27 25 25 24 25 23 22 23 24 25 27 29 32 36 39 42 44 46 49 51 54 59 61 65 69 71 72 75 78
28 28 28 26 25 25 26 26 25 24 24 26 27 30 31 34 37 40 43 45 46 49 52 54 57 61 65 68 72 74 75 78 82
28 29 28 26 26 27 27 26 25 25 27 29 32 33 35 39 41 44 46 48 49 52 54 58 60 65 68 71 74 76 77 81 85
29 29 27 27 27 27 27 27 28 29 32 34 35 37 39 42 45 47 49 51 52 55 58 60 64 68 71 74 76 78 80 85 87
29 29 28 29 29 30 30 31 32 33 35 36 39 41 44 47 48 50 52 54 56 59 62 63 68 71 75 77 78 81 83 88 90
32 32 30 31 32 33 34 35 36 37 38 40 42 45 48 50 51 53 56 59 61 63 65 68 72 74 76 78 81 83 86 91 93
35 35 35 35 37 37 37 38 41 42 43 45 47 48 52 54 54 58 59 61 65 66 69 72 73 75 78 80 83 86 91 93 95
38 38 38 38 39 40 41 43 44 47 48 49 51 52 54 56 58 63 63 66 69 71 72 74 75 77 81 83 87 90 96 97 96
40 39 40 41 43 44 45 46 48 50 51 53 54 55 57 59 63 65 67 69 72 72 73 75 77 81 83 89 92 97 99 100 97
44 44 45 45 46 48 49 50 51 53 54 56 58 58 60 65 68 69 71 74 75 75 76 77 82 84 90 93 98 102 103 103 101
49 48 50 51 52 52 53 53 55 57 59 60 61 60 66 69 72 72 75 77 77 78 78 82 85 90 95 98 103 105 105 104 101
53 53 54 55 55 56 56 58 60 61 62 61 62 66 70 74 75 76 77 78 79 80 82 87 90 96 100 102 106 105 107 103 98
59 59 58 57 56 58 60 61 63 65 64 66 68 70 75 76 78 78 77 78 80 82 87 90 97 100 104 106 108 108 106 104 97
62 60 59 59 61 63 65 66 66 65 67 70 73 75 76 80 80 80 81 84 85 89 92 97 101 104 106 110 108 111 103 99 95
65 64 65 66 66 67 66 68 67 69 72 74 76 79 80 80 84 84 86 88 92 95 98 101 104 107 110 111 112 109 105 100 90
68 67 66 68 67 68 71 69 72 73 75 77 78 79 82 85 86 89 90 93 95 99 102 104 107 110 111 110 110 104 102 96 88
71 72 73 73 73 74 72 73 74 75 77 79 82 83 83 86 89 91 95 97 99 102 105 106 110 112 110 109 105 102 97 91 82
71 72 73 74 72 74 77 78 79 80 83 86 87 86 87 89 87 92 97 99 102 105 107 107 109 110 110 109 102 97 94 88 75
73 72 72 74 77 80 81 83 85 87 88 89 89 90 92 91 93 93 97 101 103 105 107 106 107 108 106 102 96 93 91 79 71

GFSFLT1_250_spd_090.txt.gz
Wind_Speed
33 31 31 30 29 29 27 28 25 25 26 27 28 23 25 24 26 28 31 35 38 40 42 44 46 48 50 53 57 61 65 68 71
30 29 28 27 27 26 27 25 24 26 27 29 26 27 26 27 29 32 35 38 41 43 44 46 48 51 54 57 61 64 68 71 73
30 30 27 28 27 27 26 25 26 27 28 29 29 29 29 31 32 34 37 41 44 46 47 49 51 54 57 60 64 67 70 73 77
31 31 28 29 29 29 26 26 28 28 29 30 30 32 33 34 36 39 41 44 48 48 50 52 55 57 61 63 66 69 72 75 78
33 31 30 30 30 29 28 28 28 29 30 31 34 35 37 37 39 43 45 49 51 52 54 57 59 63 64 65 69 72 74 77 81
34 33 32 32 31 30 30 31 30 31 33 36 37 39 39 41 44 47 49 52 54 55 58 60 63 65 67 69 71 74 76 80 82
35 35 34 34 33 33 34 34 35 36 37 39 40 42 44 45 48 50 53 54 56 58 61 63 66 67 70 71 72 76 79 83 86
37 37 37 37 38 38 37 38 40 41 41 43 44 46 47 49 51 53 54 57 59 61 66 67 67 69 72 73 76 79 83 87 91
39 39 40 39 40 41 41 42 43 44 44 46 47 49 50 52 54 56 57 59 63 66 68 69 71 73 74 76 80 83 87 91 95
41 41 41 42 42 43 44 44 44 46 48 50 52 52 52 54 56 58 60 64 65 69 71 72 73 75 78 81 85 86 90 95 99
43 42 42 43 44 45 45 46 48 50 52 54 54 55 56 59 60 60 64 66 70 70 74 75 77 78 82 85 88 91 95 100 103
45 44 45 46 46 47 50 50 53 54 55 57 57 58 61 63 62 65 67 69 73 75 77 78 81 83 86 88 92 95 99 103 106
51 50 50 50 50 52 53 56 58 57 56 58 62 63 65 66 65 69 71 74 75 78 80 82 85 87 88 93 95 101 104 105 107
56 56 56 56 56 57 58 59 60 60 62 64 65 65 68 68 71 73 75 75 79 81 84 86 87 89 93 97 100 103 108 109 108
62 61 60 61 62 61 63 63 64 63 65 65 66 68 71 71 75 75 77 81 84 86 87 89 90 93 97 100 105 107 107 108 108
66 65 66 67 66 67 68 66 69 67 64 69 70 73 71 77 77 81 85 87 88 90 90 91 94 96 101 104 107 109 111 109 100
71 73 72 70 71 70 69 68 65 67 71 73 73 73 77 78 83 87 90 91 91 90 92 94 97 101 104 106 108 106 107 106 100
67 69 69 67 65 65 66 68 71 72 70 70 71 77 77 85 89 93 95 93 93 94 95 97 101 104 106 108 106 105 104 101 97
66 64 66 65 65 66 68 67 69 70 71 73 77 80 85 88 89 91 93 93 95 97 99 102 106 107 109 108 103 104 102 97 94
73 73 72 71 70 70 70 73 74 74 75 77 81 88 90 91 89 89 92 95 97 100 103 106 107 109 106 104 100 100 97 94 91

GFSFLT1_250_spd_093.txt.gz
Wind_Speed
36 36 31 31 31 29 30 29 29 27 25 25 26 26 29 29 27 30 30 32 34 37 39 43 45 47 50 52 54 57 60 63 66
36 34 33 32 31 30 29 30 26 26 25 26 27 29 30 29 30 32 33 35 38 41 43 46 48 51 54 56 58 61 63 65 69
36 35 33 32 31 30 29 28 28 26 27 28 30 31 31 31 33 35 37 39 41 44 47 50 52 54 56 59 61 64 67 68 71
37 36 34 32 32 32 29 30 30 27 28 29 29 29 32 34 36 38 41 42 44 47 49 52 54 56 58 62 64 67 69 71 73
38 37 34 33 32 32 32 31 30 29 30 30 30 32 34 37 39 41 43 46 48 50 53 54 57 60 61 64 67 69 70 73 74
40 38 36 36 34 34 34 32 31 32 33 34 34 35 37 39 42 44 47 49 51 53 55 57 59 63 65 67 69 71 73 75 78
41 38 37 38 37 36 36 34 34 34 35 37 39 40 42 44 45 47 49 52 53 55 57 59 62 65 68 70 72 74 77 78 81
41 40 40 39 39 39 38 37 38 39 39 40 43 44 45 46 48 50 51 52 55 58 59 62 65 68 71 73 75 78 80 82 84
41 41 42 40 41 41 41 41 42 42 43 44 45 46 47 49 51 51 52 56 59 61 62 66 68 72 74 76 79 81 84 85 88
41 41 42 43 43 42 43 44 44 44 45 47 47 48 50 52 51 51 55 58 61 64 65 69 72 74 78 81 84 85 86 88 91
42 42 43 44 44 44 44 44 45 46 47 48 51 52 54 57 53 55 59 58 63 65 68 72 75 77 81 84 86 87 88 92 95
46 45 44 44 44 44 45 46 48 49 49 53 55 59 61 60 60 61 61 62 65 68 71 74 78 82 84 87 88 87 92 95 99
50 49 48 49 48 48 48 50 52 53 56 58 59 59 62 64 63 61 65 66 70 72 74 77 81 85 88 89 89 92 95 98 101
53 53 54 54 53 53 55 56 57 58 60 61 64 67 67 67 65 64 69 71 73 73 78 81 85 88 89 89 91 95 99 103 106
57 57 58 60 61 62 62 62 62 63 65 66 68 71 69 67 67 70 71 71 74 78 80 85 88 88 89 92 96 98 100 103 107
54 60 63 63 65 66 66 66 67 69 70 71 68 68 65 67 70 72 74 76 78 82 84 88 89 89 93 96 98 101 104 108 105
44 45 50 55 57 60 65 72 73 72 71 69 66 65 66 70 71 74 77 79 81 85 89 89 91 94 96 100 101 104 108 110 109
57 55 59 61 62 61 61 64 66 66 64 63 64 67 69 72 74 78 81 84 87 90 92 94 96 97 100 102 105 109 111 110 108
64 60 55 60 63 65 68 69 67 67 64 66 69 72 72 74 76 78 84 89 93 95 96 99 101 101 104 106 109 113 113 109 106
64 59 62 61 61 62 67 69 66 69 71 72 74 78 76 76 79 82 88 91 96 98 102 103 104 105 106 110 112 115 112 104 100

GFSFLT1_250_spd_096.txt.gz
Wind_Speed
38 36 36 34 34 34 34 33 31 30 28 27 26 25 26 28 29 31 31 33 35 38 40 43 46 47 48 51 54 55 59 61 64
36 36 35 35 33 33 34 32 31 29 28 27 25 26 27 30 31 31 33 34 38 41 43 46 48 51 53 54 56 58 60 63 66
37 35 35 34 34 33 34 31 32 30 29 29 27 27 28 30 30 33 34 37 40 43 45 47 49 52 55 57 59 62 64 65 67
38 36 36 36 35 34 34 33 32 32 31 31 28 29 30 31 32 34 36 40 42 44 47 50 52 54 57 59 62 64 67 67 69
39 39 38 37 37 36 35 35 35 34 33 32 31 32 33 35 36 37 39 43 46 48 50 51 53 55 60 60 64 65 68 71 73
41 41 40 38 39 37 37 36 36 36 35 34 34 35 35 37 39 40 43 47 47 49 51 53 55 57 60 62 66 68 70 73 76
40 41 40 38 41 38 38 38 38 38 38 37 38 38 38 40 43 45 48 48 49 50 51 56 55 58 63 65 67 70 72 75 78
40 40 37 38 40 38 39 39 39 40 40 39 41 42 43 44 46 48 49 49 52 53 53 57 57 61 64 68 71 73 75 77 81
40 38 38 39 39 40 40 41 41 42 42 42 43 45 45 47 49 48 49 50 55 56 60 58 60 62 68 71 73 75 77 79 84
42 40 40 38 40 40 42 42 43 45 44 44 45 45 47 48 48 49 53 55 56 58 58 59 63 66 71 72 75 78 79 82 85
44 43 41 40 41 42 42 43 44 45 45 45 46 47 49 50 51 54 52 59 60 61 59 62 67 69 71 76 76 78 81 85 89
47 46 44 43 44 44 43 43 45 46 46 48 48 51 53 54 55 55 61 64 63 62 62 66 67 71 76 78 79 81 84 88 92
50 50 48 47 47 47 47 48 49 51 52 53 54 56 58 58 58 63 65 65 66 62 64 68 73 74 76 80 84 86 88 92 94
53 52 52 52 52 53 54 55 55 56 57 59 61 62 62 64 64 69 68 68 62 61 68 71 75 77 79 82 85 88 93 98 100
53 54 54 55 57 57 58 59 60 60 62 65 67 67 68 70 70 70 68 66 64 67 70 73 75 78 81 85 89 91 98 102 104
55 54 53 58 62 64 60 57 58 62 63 64 62 67 71 73 71 68 68 64 68 70 74 75 77 82 86 88 92 97 101 105 107
56 58 61 61 60 54 46 46 46 49 51 50 55 62 65 65 69 70 69 70 71 74 77 77 80 82 90 94 96 99 104 108 111
47 46 50 59 67 67 61 59 60 59 59 62 64 67 69 69 71 71 73 74 76 78 78 80 82 92 97 98 100 103 109 111 113
61 59 60 60 61 63 67 69 72 74 74 74 73 73 72 73 71 74 76 79 78 77 79 85 93 96 98 105 106 108 111 115 115
67 67 69 69 70 71 70 71 71 71 69 65 67 67 70 73 77 75 74 75 80 84 87 96 100 102 105 110 109 114 114 116 117

GFSFLT1_250_spd_099.txt.gz
Wind_Speed
36 35 36 36 35 35 34 33 32 33 33 32 30 29 27 25 28 28 30 31 32 36 38 41 44 47 50 53 52 54 56 56 58
35 34 34 35 35 36 34 33 34 34 32 33 31 30 29 29 29 29 32 32 35 38 41 45 47 49 52 52 53 55 56 57 60
37 36 35 35 35 35 34 33 35 34 33 32 32 33 31 32 32 32 33 35 38 40 44 47 49 50 50 51 52 55 57 59 62
40 38 37 35 35 35 34 35 37 35 35 34 34 34 33 33 34 35 35 37 40 44 48 50 51 50 52 54 54 55 57 62 66
41 40 38 37 37 37 37 37 38 36 36 37 36 36 36 35 36 37 38 40 42 46 50 50 50 52 51 56 55 56 61 66 69
42 41 39 39 38 38 39 36 39 37 36 37 38 38 37 38 39 41 42 44 46 48 50 47 50 52 55 55 56 58 64 67 69
42 41 41 41 40 39 39 37 40 38 36 38 39 39 40 41 42 43 46 47 48 49 49 50 53 55 55 56 58 62 65 70 72
39 40 41 40 39 38 36 35 39 38 38 40 41 41 43 43 45 46 47 48 49 49 52 52 55 59 60 57 61 66 69 72 73
40 40 42 41 38 37 37 37 39 39 40 42 44 43 45 44 45 46 46 48 49 53 54 56 61 61 62 61 65 68 71 73 74
41 41 42 43 41 39 39 38 41 41 42 44 45 46 46 47 47 48 48 51 53 57 58 61 64 66 64 65 68 70 74 73 75
43 43 43 44 45 42 40 40 40 41 43 43 45 45 46 48 50 50 51 55 57 60 64 66 67 68 66 67 70 74 74 75 77
46 45 45 47 47 47 45 43 43 44 44 45 47 47 49 51 52 54 57 59 62 65 67 68 69 71 69 71 74 75 74 79 81
47 48 47 48 50 50 50 50 49 48 49 50 52 53 55 55 57 58 61 64 69 67 69 72 72 70 72 72 76 79 76 80 86
49 48 49 50 51 53 54 54 55 55 55 55 54 54 56 57 59 57 57 68 70 67 71 69 69 71 72 74 77 77 79 86 92
55 50 48 50 52 55 57 58 59 58 60 58 57 57 58 64 65 64 64 65 67 66 66 69 68 70 74 77 76 81 83 90 97
57 55 52 51 53 56 59 60 63 63 62 56 52 63 65 67 65 67 62 63 67 70 70 69 69 75 77 76 78 82 89 94 100
59 57 58 56 55 55 58 62 64 68 63 67 71 73 71 69 71 65 66 70 73 75 75 71 73 76 78 78 81 84 92 100 108
57 51 53 52 55 58 61 64 68 69 69 69 69 64 66 68 70 73 76 79 76 70 76 78 76 78 79 82 83 88 94 104 111
59 46 51 49 50 54 57 60 63 64 68 68 70 70 73 76 74 76 78 79 73 78 77 80 81 83 83 87 92 94 102 110 113
73 63 63 65 65 65 66 66 68 72 71 75 76 81 80 79 80 79 78 77 77 81 84 86 83 86 92 93 98 101 109 115 115

GFSFLT1_250_spd_102.txt.gz
Wind_Speed
35 34 34 33 32 32 32 32 32 34 32 34 34 33 32 32 31 30 32 31 32 34 37 40 42 45 48 48 47 49 49 51 52
38 36 33 32 31 32 32 32 33 33 32 34 34 34 34 33 33 32 33 34 34 36 39 42 44 47 48 46 47 46 50 51 54
38 38 36 33 32 33 33 32 32 33 34 36 35 35 34 34 34 34 34 35 37 40 42 44 46 48 46 46 48 49 52 53 58
35 38 38 36 35 34 34 33 33 34 36 38 37 35 35 35 36 36 36 37 40 43 45 47 47 49 47 49 49 53 56 56 61
32 34 37 37 37 36 35 35 35 38 37 37 38 37 35 36 36 38 38 39 42 45 46 47 48 49 49 51 53 57 59 61 65
31 32 35 35 37 38 37 37 37 38 40 38 39 39 36 37 37 40 41 42 44 46 47 47 50 50 53 54 57 60 62 64 67
35 34 35 35 36 37 38 39 40 38 39 37 39 39 39 39 40 42 44 44 44 45 47 48 51 53 55 56 59 62 63 67 69
38 37 37 36 35 36 38 40 40 38 37 37 39 39 40 41 43 45 46 46 46 47 47 51 54 57 58 60 63 66 67 69 69
41 40 39 39 37 38 38 38 38 38 38 39 41 43 41 43 45 45 46 47 48 49 51 53 57 60 62 64 66 67 70 69 70
44 42 40 39 40 40 40 41 40 40 41 42 42 43 43 44 45 46 47 48 50 53 54 58 63 64 66 67 67 70 69 70 70
46 43 40 41 41 41 42 43 45 45 44 44 44 44 46 46 47 48 49 52 55 57 58 61 63 66 66 65 66 68 70 71 75
49 47 44 42 42 43 44 46 47 48 49 48 48 48 49 50 50 50 49 52 54 59 60 65 66 68 67 64 69 73 69 72 75
54 51 49 47 45 45 46 48 51 52 52 53 53 54 54 54 54 52 53 54 61 62 64 69 71 69 66 70 73 69 72 74 77
60 57 54 53 53 49 47 51 52 53 55 58 58 59 59 58 57 59 58 60 65 67 71 67 70 66 74 76 70 69 74 77 79
62 61 61 58 59 58 55 52 52 54 56 59 63 63 62 62 60 60 64 68 71 70 69 66 64 72 79 76 73 76 81 79 80
66 63 61 60 59 58 57 56 55 53 54 55 60 67 66 65 64 64 69 65 67 66 67 70 73 74 74 76 77 80 82 82 84
70 67 65 64 62 63 62 62 62 62 61 65 65 66 65 68 69 67 64 63 67 69 71 73 73 76 77 82 83 83 84 84 89
76 72 68 68 69 69 68 66 68 69 68 70 72 73 74 73 71 71 67 68 73 74 78 81 76 78 82 80 80 81 84 90 92
68 68 69 68 68 66 63 71 68 72 74 74 70 65 66 69 71 70 73 78 83 83 83 79 82 78 73 76 78 83 88 92 93
68 70 67 71 69 68 62 64 70 68 65 64 68 74 78 80 82 84 81 83 83 83 85 74 81 79 80 81 83 85 93 94 98

GFSFLT1_250_spd_105.txt.gz
Wind_Speed
37 35 35 34 33 35 32 29 30 31 30 31 30 30 32 34 32 32 32 32 33 34 35 37 40 44 45 46 46 45 45 47 52
34 36 37 38 36 33 32 30 31 32 30 30 31 31 33 34 33 31 32 33 33 34 37 38 41 44 47 47 47 46 48 51 55
34 34 35 36 36 34 33 32 33 33 32 31 31 32 34 35 35 32 33 34 34 35 38 40 43 46 48 48 47 48 52 54 56
29 28 28 30 32 33 34 35 35 34 34 33 34 35 35 35 37 34 34 35 36 38 40 41 44 46 48 48 49 51 54 56 60
29 29 28 26 28 28 31 34 34 35 36 35 37 38 38 36 38 37 36 37 38 40 42 43 45 47 48 49 51 55 58 61 63
31 31 30 29 28 28 29 31 34 35 36 38 39 39 38 36 38 38 38 39 40 43 45 45 47 49 50 52 54 58 62 64 64
34 34 33 33 32 32 32 32 32 34 35 37 39 39 38 38 38 40 41 41 42 44 45 46 48 50 52 55 58 61 62 64 59
37 37 37 36 35 35 35 35 36 36 36 35 37 38 39 40 42 42 43 44 45 46 46 48 50 53 55 55 58 62 63 62 64
42 41 41 39 39 38 37 38 37 39 39 38 37 38 40 42 43 44 45 47 47 47 48 49 51 51 54 56 63 67 67 64 67
47 44 43 42 42 40 38 39 40 39 40 42 43 43 43 43 44 46 46 47 48 48 47 48 50 53 57 59 64 64 61 64 71
49 46 45 45 44 44 40 39 40 41 43 45 46 47 48 48 48 49 49 50 50 50 53 55 54 55 62 66 65 66 63 71 71
52 51 52 50 48 46 46 44 43 43 45 46 47 50 52 52 53 54 55 54 54 57 59 61 61 64 64 63 64 67 67 71 71
57 54 53 54 54 53 51 50 51 50 49 49 49 52 53 53 55 56 55 55 57 60 62 64 65 68 65 64 67 67 69 73 76
61 59 58 58 58 59 57 56 57 56 56 56 52 52 55 56 58 58 59 59 59 61 63 65 67 70 66 69 68 70 73 73 80
68 66 65 63 62 62 62 62 62 61 59 56 55 57 59 60 63 66 65 67 66 65 67 71 69 68 70 70 73 76 74 78 78
72 71 71 69 65 65 63 64 64 65 65 67 67 66 67 69 71 71 69 68 67 65 67 70 68 71 71 74 81 82 80 84 89
73 73 72 72 71 68 68 67 67 70 71 71 73 74 71 70 71 70 72 70 72 69 70 69 68 74 77 80 79 84 86 83 89
76 76 74 74 74 73 73 72 73 72 74 75 74 75 76 78 73 76 75 72 69 67 72 77 80 80 83 82 87 78 83 90 87
73 70 70 66 71 70 67 67 69 70 71 75 79 80 80 73 73 73 76 76 76 76 78 84 82 84 85 83 78 86 87 95 92
72 62 63 70 68 67 65 64 65 71 76 75 74 72 76 77 80 80 82 82 80 83 81 84 82 82 83 86 92 94 95 96 91

GFSFLT1_250_spd_111.txt.gz
Wind_Speed
26 27 27 27 29 28 29 31 31 32 34 30 29 29 29 30 30 31 32 31 30 31 32 35 35 35 37 38 39 40 40 40 41
27 26 28 27 28 28 28 27 28 29 30 30 30 29 29 30 31 30 32 31 31 31 32 34 35 36 37 39 40 41 40 40 39
28 29 28 29 29 27 27 25 24 23 24 24 25 25 26 26 27 28 30 30 30 31 33 35 36 37 39 40 40 39 40 39 40
29 29 28 29 27 24 22 21 21 21 22 23 24 25 25 25 25 26 28 28 29 30 34 37 38 39 40 41 41 41 41 41 43
30 30 28 27 26 24 23 22 23 23 23 23 24 27 28 27 28 29 29 30 32 34 35 36 38 40 41 43 43 43 44 44 48
35 33 31 27 26 27 26 25 25 26 27 27 29 29 29 30 32 32 32 33 35 35 36 38 39 39 40 42 44 44 48 47 51
38 37 34 30 30 29 28 29 30 31 31 31 32 33 34 34 35 35 36 37 37 37 38 39 40 41 42 44 47 49 51 51 56
39 38 34 32 32 32 32 33 36 38 38 37 36 37 39 39 39 38 39 41 42 42 42 41 42 42 44 44 49 51 56 59 58
38 34 34 34 36 39 38 39 40 41 40 40 42 42 42 42 42 43 43 45 45 45 46 44 44 48 46 50 52 55 60 55 55
37 37 37 37 38 41 43 44 43 42 43 44 47 47 46 45 45 46 48 49 50 50 49 49 52 52 53 54 56 60 58 57 54
43 40 42 41 41 41 41 44 44 46 46 48 49 49 50 51 51 53 52 53 53 52 53 52 53 51 55 56 59 60 55 54 57
51 48 47 48 47 48 49 49 49 47 47 51 53 55 55 56 55 55 57 57 56 59 59 55 56 56 60 61 57 53 55 55 61
51 53 53 52 51 53 55 56 56 54 57 57 59 61 62 61 65 64 63 65 65 63 63 62 63 65 67 63 54 51 54 65 64
53 53 57 58 56 57 56 57 56 56 60 62 63 63 62 64 66 70 69 68 67 65 66 71 74 66 62 55 51 53 63 65 65
63 67 65 63 63 62 63 64 63 65 68 68 67 68 70 71 72 72 70 71 69 72 76 72 65 59 57 56 58 64 69 70 68
73 75 70 68 66 66 67 67 70 71 72 75 74 71 71 66 69 72 74 74 77 75 72 71 58 58 61 67 67 73 73 72 75
69 67 68 71 64 61 63 65 70 72 74 73 72 71 70 71 73 73 74 75 75 74 71 60 61 68 71 73 73 77 78 75 75
72 66 67 69 71 73 76 77 73 72 70 69 70 71 72 75 76 73 69 71 71 66 58 62 76 71 77 77 77 78 77 78 77
58 60 65 65 63 63 63 62 62 65 68 71 73 73 74 74 68 74 71 76 70 69 67 77 75 73 76 82 79 80 81 81 82
69 66 59 58 59 57 61 62 64 68 68 71 72 67 66 68 62 74 75 76 70 75 83 80 81 78 85 83 83 79 79 84 89

GFSFLT1_250_spd_114.txt.gz
Wind_Speed
28 23 24 26 24 24 24 25 26 26 26 27 28 27 27 25 25 25 24 25 26 27 27 28 30 34 36 36 36 37 38 39 39
28 26 26 24 24 24 24 24 25 25 23 22 21 21 20 20 21 22 23 24 26 27 28 31 34 34 36 37 37 37 39 41 43
31 29 29 25 25 26 25 24 22 18 17 17 18 18 19 21 22 24 24 26 27 29 31 34 34 35 36 37 36 37 39 43 45
30 25 23 24 23 25 24 21 21 20 19 19 19 20 20 23 25 26 28 29 30 31 33 35 36 38 37 39 39 39 40 43 43
32 28 26 26 26 24 22 21 23 23 22 21 22 24 25 27 27 28 31 31 32 32 35 37 38 41 40 41 42 44 42 47 48
34 32 31 33 31 26 25 24 24 25 24 24 26 28 29 31 31 32 34 33 33 34 37 39 40 43 41 42 46 45 45 50 53
40 37 36 36 35 32 29 27 27 27 29 31 32 34 35 35 35 36 37 37 37 38 40 42 43 46 45 47 49 51 48 51 55
41 38 36 35 35 34 32 29 31 32 34 35 37 37 37 38 39 39 40 41 43 43 44 44 47 45 49 49 51 50 54 57 55
41 40 38 36 33 32 34 35 36 37 38 40 39 39 40 41 43 45 48 47 47 49 50 54 52 55 55 57 52 54 58 59 55
44 40 41 38 36 35 37 38 39 40 39 40 41 43 44 44 47 48 51 53 53 55 57 55 58 58 57 57 58 64 61 53 48
46 43 45 44 42 39 41 41 42 43 44 44 44 44 46 49 47 52 58 58 59 60 59 61 60 58 58 58 58 54 51 47 49
51 47 49 47 50 50 51 49 49 49 48 51 54 50 49 52 55 57 56 62 59 63 63 65 61 64 60 58 58 49 47 52 57
54 52 52 48 50 51 52 51 51 52 55 55 52 52 54 53 54 56 61 58 60 69 64 65 61 62 60 56 52 46 55 60 60
53 51 52 46 45 46 50 52 54 58 60 58 60 59 60 62 67 65 66 63 67 69 66 61 65 60 59 56 46 54 64 66 66
50 48 56 54 52 61 64 64 62 58 59 62 63 66 68 66 66 66 66 67 72 68 65 64 57 57 52 49 50 63 68 69 67
61 61 59 61 64 64 60 59 56 60 60 61 66 65 68 67 70 74 71 72 68 67 65 59 53 55 57 57 64 68 71 67 70
60 64 65 68 71 73 71 64 64 69 66 63 69 69 74 75 71 69 63 64 61 59 58 54 63 67 67 72 71 74 73 69 73
63 67 70 73 73 75 75 74 73 72 68 73 72 74 71 64 61 61 62 59 58 59 63 62 67 71 72 75 76 78 78 75 72
63 64 67 68 67 65 65 65 67 68 69 68 65 62 65 68 68 69 65 65 63 65 70 71 70 73 75 78 79 81 82 78 81
64 64 64 64 66 66 64 63 64 67 65 64 65 70 69 70 72 70 68 68 69 73 72 72 76 78 82 84 86 89 94 94 94

GFSFLT1_250_spd_117.txt.gz
Wind_Speed
34 33 27 24 21 23 25 25 23 22 23 23 23 21 18 16 16 18 20 21 23 25 28 30 32 33 35 36 37 38 40 42 39
34 31 26 24 23 25 27 24 23 23 22 18 18 17 16 16 17 18 21 22 26 28 29 30 33 34 35 38 38 37 42 40 42
33 29 27 25 26 25 24 23 23 21 21 18 18 19 19 18 19 22 24 25 27 28 29 30 33 35 38 38 42 41 43 44 46
34 31 28 22 22 20 19 21 22 20 20 20 19 19 19 20 22 23 26 27 29 30 30 31 35 38 40 43 43 45 47 47 49
35 32 30 25 24 25 24 22 21 22 22 23 22 22 22 25 27 29 30 29 30 33 35 36 39 42 44 46 51 50 47 48 48
36 34 32 29 27 28 30 28 25 25 25 25 25 25 27 30 32 33 31 34 35 39 40 41 43 44 50 50 52 51 50 49 53
36 33 32 32 31 29 30 30 27 26 28 26 28 30 32 33 33 33 35 38 40 41 42 45 46 52 53 54 53 50 50 53 54
36 34 33 35 33 29 30 30 27 27 29 30 31 33 34 34 36 37 36 38 42 43 46 49 53 54 55 54 52 53 51 48 44
37 37 36 35 33 32 32 30 27 28 29 32 33 35 38 38 37 37 37 41 43 47 50 54 56 59 57 54 50 53 50 48 38
43 42 41 39 38 37 36 34 34 34 33 33 35 37 41 44 43 45 46 44 47 50 46 53 51 58 60 56 53 51 47 45 38
50 48 47 47 43 41 41 39 39 38 40 39 43 44 43 48 46 48 47 50 50 47 52 54 55 62 59 56 52 50 47 44 41
55 52 51 52 49 48 46 46 45 44 47 46 46 43 43 51 51 48 49 51 54 56 56 59 60 61 58 54 48 48 50 48 48
59 59 53 53 54 52 51 48 49 43 42 40 45 44 51 50 53 53 56 57 60 60 60 60 56 54 52 51 46 45 55 52 60
60 59 59 56 56 55 51 53 45 47 44 47 43 48 50 49 50 55 60 63 64 63 60 54 50 51 46 45 48 53 57 58 61
64 62 62 61 60 56 50 53 50 53 54 58 61 54 54 56 60 62 64 65 64 62 57 49 52 51 45 50 51 56 53 56 61
62 63 61 57 57 57 62 61 59 60 64 63 67 70 71 70 68 66 65 64 60 55 51 54 54 52 51 53 55 53 59 60 70
59 53 50 51 53 56 59 60 62 63 67 70 72 75 72 66 61 61 62 58 56 54 56 57 51 53 51 56 58 60 62 70 73
53 51 50 49 53 55 56 58 64 68 72 72 71 67 62 60 58 60 57 60 56 55 53 51 55 56 58 61 61 63 67 71 75
51 52 49 49 52 55 59 63 67 68 69 66 66 65 64 59 64 61 59 59 63 62 59 55 57 60 65 66 64 69 75 76 80
45 49 52 52 58 59 62 69 66 66 69 69 66 66 64 63 63 64 65 68 68 63 64 65 67 65 67 71 68 71 76 81 86

GFSFLT1_250_spd_120.txt.gz
Wind_Speed
34 33 30 28 26 26 25 25 24 25 23 23 23 19 15 14 15 14 17 19 20 22 25 25 27 29 35 36 41 44 45 45 45
33 29 27 25 24 22 24 24 25 25 22 21 19 18 15 14 14 15 18 20 23 24 26 27 30 34 36 39 45 47 46 45 46
32 30 28 26 24 22 24 22 21 20 18 19 18 17 18 16 15 17 20 23 25 24 27 30 33 35 37 43 46 47 49 45 47
32 32 30 28 25 22 20 17 19 21 19 19 19 18 19 18 18 20 23 24 26 28 31 35 36 38 39 43 49 47 46 45 47
33 33 34 29 27 24 22 22 25 24 23 22 21 21 21 21 22 26 26 27 30 32 35 36 37 39 43 47 51 50 42 43 45
37 33 33 32 30 28 27 25 26 26 24 25 25 24 23 23 25 28 28 28 30 33 34 38 39 42 46 48 53 48 46 46 45
42 35 32 32 30 28 26 26 25 26 25 26 26 24 24 25 26 28 29 31 30 32 38 38 42 39 47 47 48 54 50 45 44
45 39 33 30 28 28 28 26 25 27 27 25 25 26 28 29 29 30 32 33 36 41 35 38 37 39 48 48 49 52 51 44 42
49 43 36 31 30 29 29 27 31 32 32 29 29 29 28 31 33 36 36 34 37 38 38 42 40 44 51 52 46 49 46 42 37
50 45 41 38 34 34 35 36 36 36 37 37 35 33 36 39 39 37 38 38 41 40 39 45 49 53 55 51 45 45 41 38 40
52 50 47 44 41 41 41 43 44 42 42 44 42 43 45 42 41 36 37 39 40 43 48 52 53 56 56 51 47 43 36 37 41
57 54 50 48 46 44 44 47 49 49 47 48 50 49 45 40 38 39 39 43 40 46 53 56 55 56 50 48 45 42 37 41 44
60 57 53 53 51 51 52 54 50 50 52 51 51 56 48 45 38 43 50 52 56 55 57 58 58 50 45 43 45 43 42 44 46
60 61 59 59 57 55 53 53 55 52 52 52 56 53 52 50 52 54 59 63 62 62 58 59 53 50 42 47 48 42 43 46 50
61 59 55 58 58 59 57 60 57 58 54 53 52 52 55 56 59 63 64 65 65 61 61 52 49 43 45 46 42 43 44 46 55
62 55 59 59 60 60 62 60 59 51 52 56 58 60 62 61 62 63 64 65 62 59 52 50 48 43 45 47 45 46 46 53 54
57 54 56 55 53 54 57 53 49 52 57 59 57 58 59 63 65 64 63 61 60 56 56 49 46 48 52 47 47 48 48 54 56
57 57 53 55 52 53 54 49 48 53 54 56 60 59 60 62 62 59 61 64 63 60 56 54 53 54 51 49 50 55 59 57 59
60 58 51 54 54 53 52 51 51 53 57 59 62 65 62 62 62 61 63 65 63 60 62 56 53 57 53 51 53 60 60 61 62
56 59 54 51 52 52 52 49 52 56 61 63 65 67 66 63 64 68 67 64 66 60 58 56 60 60 57 59 65 64 59 64 68

GFSFLT1_250_spd_126.txt.gz
Wind_Speed
30 30 30 29 29 26 21 22 24 23 22 23 21 18 19 17 14 13 13 14 16 18 21 24 28 29 30 33 37 40 41 43 47
29 30 32 29 28 23 19 19 22 22 22 22 20 18 18 18 16 15 17 18 19 21 26 27 28 28 33 35 39 41 44 45 50
32 32 29 27 24 21 19 19 21 23 20 19 18 19 19 19 19 18 19 22 23 25 26 28 28 32 34 35 39 41 46 50 51
34 33 32 27 22 22 19 21 20 21 20 21 22 23 23 21 21 22 22 23 24 26 26 28 31 33 35 35 40 45 46 50 51
38 35 33 31 26 21 21 22 22 23 23 25 25 24 23 22 22 22 24 26 27 27 30 32 32 31 34 36 41 43 47 49 51
42 38 35 33 29 25 22 22 24 25 25 25 24 22 19 20 20 22 24 27 30 31 35 38 33 35 37 40 41 43 50 50 49
47 42 40 37 32 28 24 23 23 25 24 24 23 19 19 20 22 22 25 30 31 37 40 41 38 35 38 41 45 51 54 50 45
51 47 44 39 37 32 29 28 25 24 25 25 25 22 24 24 25 26 28 31 35 37 41 42 42 39 38 43 50 57 52 45 43
54 52 47 43 40 36 35 32 31 28 27 28 28 30 30 33 30 36 36 39 40 41 44 44 43 41 42 51 56 57 54 44 38
58 55 50 45 43 41 38 38 35 34 34 33 35 35 36 34 36 41 41 43 43 43 46 48 42 42 48 53 58 57 48 45 37
61 57 53 50 47 45 42 41 40 39 39 39 40 41 38 39 40 44 44 45 46 46 48 46 43 46 50 55 59 54 45 42 41
63 60 58 55 53 50 46 45 44 43 44 46 44 45 43 45 44 44 46 49 49 49 46 46 48 50 55 58 57 50 51 50 44
63 61 61 60 57 54 51 50 49 47 47 48 48 50 50 52 50 49 48 52 50 50 46 48 50 53 57 56 55 47 48 48 44
59 61 62 63 62 57 56 54 53 51 51 53 53 54 52 57 51 50 51 53 54 47 49 51 56 56 55 56 50 50 47 43 44
49 53 59 65 63 61 60 58 57 56 56 55 55 53 57 56 59 56 53 54 47 48 51 53 54 55 55 54 52 53 46 46 40
54 51 56 63 64 62 59 62 60 56 56 57 54 55 57 56 58 58 55 49 47 49 51 53 54 55 55 56 56 52 52 49 50
45 41 45 55 60 62 60 59 60 59 57 56 59 61 56 53 54 54 51 50 51 53 56 59 61 62 61 61 57 54 57 56 51
49 48 46 46 44 55 56 53 57 57 58 59 61 59 56 58 55 50 53 52 51 55 58 62 65 65 64 61 61 59 63 64 63
50 47 45 43 45 44 51 59 54 58 60 60 61 59 60 59 57 53 54 57 56 57 59 62 64 64 63 63 62 64 64 69 65
53 52 53 46 45 44 48 49 54 56 57 56 58 60 61 62 55 58 59 60 61 61 62 61 66 67 68 64 64 69 69 69 67

GFSFLT1_250_spd_129.txt.gz
Wind_Speed
28 29 29 30 29 27 25 24 23 22 21 20 20 20 19 17 16 16 16 16 18 21 23 26 28 30 32 35 37 40 41 45 47
32 29 29 29 28 28 26 20 21 20 20 19 20 18 18 17 16 17 19 20 21 23 24 27 28 33 35 35 38 40 42 47 45
36 33 29 29 27 27 23 19 18 19 20 20 20 21 20 22 20 18 18 20 21 23 25 28 31 37 37 36 38 40 43 48 49
40 37 34 31 28 26 22 20 18 19 20 20 20 23 24 24 22 19 19 20 22 24 25 27 33 37 37 40 38 40 45 48 56
43 41 37 34 31 27 26 21 18 18 20 20 22 22 24 22 19 17 19 20 22 26 27 30 33 40 40 39 39 41 47 55 60
47 44 42 36 34 31 27 23 20 19 20 21 22 22 21 20 18 18 19 21 25 28 30 33 37 39 41 40 41 42 47 54 59
51 48 47 43 37 36 31 27 23 21 21 21 21 21 22 20 19 21 23 23 28 33 34 36 38 42 44 40 41 46 49 56 60
55 52 50 48 44 40 36 33 28 25 25 22 22 22 24 21 25 27 29 29 35 38 38 39 40 43 42 40 45 48 50 59 53
57 55 53 51 50 45 41 37 33 30 29 27 26 24 26 27 29 30 31 32 37 40 41 43 41 43 43 44 47 48 51 58 52
58 57 56 54 52 50 47 42 38 33 33 31 30 31 32 33 34 35 36 37 37 39 41 42 45 45 46 47 46 48 52 51 48
61 61 60 58 56 54 49 46 42 39 36 36 34 34 36 37 37 39 41 42 43 47 45 44 45 46 48 46 47 50 51 50 48
62 61 62 61 58 56 53 51 48 45 41 39 40 41 40 41 42 42 44 47 49 48 49 48 46 48 45 45 48 49 48 50 48
66 63 61 62 62 59 56 54 51 48 46 44 45 46 45 46 46 47 45 48 49 51 52 49 48 43 45 49 48 46 50 50 50
68 65 62 62 64 60 58 58 56 54 51 50 50 51 50 51 51 49 47 50 52 53 49 46 43 45 47 47 49 52 54 53 45
65 60 58 59 62 63 62 60 58 55 54 54 56 56 56 53 50 51 52 53 53 48 46 45 44 46 52 52 54 55 54 49 47
66 61 60 59 62 62 62 62 59 58 58 57 57 59 62 58 52 52 56 54 52 52 49 46 46 51 53 54 57 53 53 57 54
63 63 57 61 61 57 58 61 62 60 59 59 57 56 61 61 58 58 59 57 54 53 52 45 50 53 56 59 59 55 60 62 60
66 58 54 55 52 50 53 56 59 58 57 57 55 54 59 58 63 60 59 58 56 56 52 49 51 55 61 64 65 64 67 66 64
66 59 53 53 55 49 45 48 47 45 53 53 53 60 62 58 61 56 58 58 61 60 57 53 53 57 64 65 68 69 66 66 67
69 61 57 56 53 46 45 48 43 43 55 55 58 60 63 65 59 57 53 58 63 58 57 53 57 59 64 68 68 66 68 68 70